Time,TemperatureF,DewpointF,PressureIn,WindDirection,WindDirectionDegrees,WindSpeedMPH,WindSpeedGustMPH,Humidity,HourlyPrecipIn,Conditions,Clouds,dailyrainin,SoftwareType,DateUTC
2014-07-23 00:00:00,63.2,61.8,29.90,East,85,0.0,1.0,95,0.00,,---,0.00,VWS V14.01,2014-07-23 04:00:00,
2014-07-23 00:01:00,63.2,61.8,29.90,East,84,0.0,1.0,95,0.00,,---,0.00,VWS V14.01,2014-07-23 04:01:00,
2014-07-23 00:02:00,63.2,61.8,29.90,East,85,0.0,1.0,95,0.00,,---,0.00,VWS V14.01,2014-07-23 04:02:00,
2014-07-23 00:06:00,63.0,61.5,29.90,East,85,0.0,0.0,95,0.00,,---,0.00,VWS V14.01,2014-07-23 04:06:00,
2014-07-23 00:07:00,63.0,61.5,29.90,East,84,0.0,0.0,95,0.00,,---,0.00,VWS V14.01,2014-07-23 04:07:00,
2014-07-23 00:11:00,63.0,61.5,29.90,East,85,0.0,0.0,95,0.00,,---,0.00,VWS V14.01,2014-07-23 04:11:00,
2014-07-23 00:12:00,63.0,61.5,29.90,East,84,0.0,0.0,95,0.00,,---,0.00,VWS V14.01,2014-07-23 04:12:00,
2014-07-23 00:16:00,62.9,61.5,29.90,East,85,0.0,0.0,95,0.00,,---,0.00,VWS V14.01,2014-07-23 04:16:00,
2014-07-23 00:19:00,62.8,61.3,29.90,East,85,0.0,0.0,95,0.00,,---,0.00,VWS V14.01,2014-07-23 04:19:00,
2014-07-23 00:21:00,62.7,61.2,29.89,East,85,0.0,0.0,95,0.00,,---,0.00,VWS V14.01,2014-07-23 04:21:00,
2014-07-23 00:22:00,62.7,61.2,29.89,East,85,0.0,0.0,95,0.00,,---,0.00,VWS V14.01,2014-07-23 04:22:00,
2014-07-23 00:25:00,62.7,61.2,29.90,East,84,0.0,0.0,95,0.00,,---,0.00,VWS V14.01,2014-07-23 04:25:00,
2014-07-23 00:26:00,62.7,61.2,29.90,East,84,0.0,0.0,95,0.00,,---,0.00,VWS V14.01,2014-07-23 04:26:00,
2014-07-23 00:27:00,62.7,61.2,29.90,East,85,0.0,0.0,95,0.00,,---,0.00,VWS V14.01,2014-07-23 04:27:00,
2014-07-23 00:30:00,62.7,61.2,29.89,East,85,0.0,0.0,95,0.00,,---,0.00,VWS V14.01,2014-07-23 04:30:00,
2014-07-23 00:31:00,62.6,61.2,29.90,East,84,0.0,0.0,95,0.00,,---,0.00,VWS V14.01,2014-07-23 04:31:00,
2014-07-23 00:32:00,62.6,61.2,29.89,East,84,0.0,0.0,95,0.00,,---,0.00,VWS V14.01,2014-07-23 04:32:00,
2014-07-23 00:35:00,62.6,61.2,29.90,East,85,0.0,0.0,95,0.00,,---,0.00,VWS V14.01,2014-07-23 04:35:00,
2014-07-23 00:36:00,62.6,61.2,29.90,East,85,0.0,0.0,95,0.00,,---,0.00,VWS V14.01,2014-07-23 04:36:00,
2014-07-23 00:37:00,62.5,61.0,29.90,East,85,0.0,0.0,95,0.00,,---,0.00,VWS V14.01,2014-07-23 04:37:00,
2014-07-23 00:40:00,62.5,61.0,29.90,East,85,0.0,0.0,95,0.00,,---,0.00,VWS V14.01,2014-07-23 04:40:00,
2014-07-23 00:41:00,62.5,61.0,29.90,East,84,0.0,0.0,95,0.00,,---,0.00,VWS V14.01,2014-07-23 04:41:00,
2014-07-23 00:42:00,62.4,61.0,29.90,East,84,0.0,0.0,95,0.00,,---,0.00,VWS V14.01,2014-07-23 04:42:00,
2014-07-23 00:45:00,62.4,61.0,29.90,East,85,0.0,0.0,95,0.00,,---,0.00,VWS V14.01,2014-07-23 04:45:00,
2014-07-23 00:46:00,62.4,61.0,29.90,East,85,0.0,0.0,95,0.00,,---,0.00,VWS V14.01,2014-07-23 04:46:00,
2014-07-23 00:47:00,62.4,61.0,29.90,East,85,0.0,0.0,95,0.00,,---,0.00,VWS V14.01,2014-07-23 04:47:00,
2014-07-23 00:48:00,62.4,61.0,29.90,East,85,0.0,0.0,95,0.00,,---,0.00,VWS V14.01,2014-07-23 04:48:00,
2014-07-23 00:50:00,62.3,60.8,29.90,East,85,0.0,0.0,95,0.00,,---,0.00,VWS V14.01,2014-07-23 04:50:00,
2014-07-23 00:51:00,62.2,60.8,29.90,East,84,0.0,0.0,95,0.00,,---,0.00,VWS V14.01,2014-07-23 04:51:00,
2014-07-23 00:52:00,62.2,60.8,29.90,East,85,0.0,0.0,95,0.00,,---,0.00,VWS V14.01,2014-07-23 04:52:00,
2014-07-23 00:53:00,62.2,60.8,29.90,East,85,0.0,0.0,95,0.00,,---,0.00,VWS V14.01,2014-07-23 04:53:00,
2014-07-23 00:55:00,62.2,60.8,29.90,East,85,0.0,0.0,95,0.00,,---,0.00,VWS V14.01,2014-07-23 04:55:00,
2014-07-23 00:56:00,62.2,60.8,29.90,East,85,0.0,0.0,95,0.00,,---,0.00,VWS V14.01,2014-07-23 04:56:00,
2014-07-23 00:57:00,62.1,60.7,29.90,East,85,0.0,0.0,95,0.00,,---,0.00,VWS V14.01,2014-07-23 04:57:00,
2014-07-23 00:58:00,62.2,60.8,29.89,East,84,0.0,0.0,95,0.00,,---,0.00,VWS V14.01,2014-07-23 04:58:00,
2014-07-23 01:04:00,62.1,60.7,29.89,East,84,0.0,0.0,95,0.00,,---,0.00,VWS V14.01,2014-07-23 05:04:00,
2014-07-23 01:05:00,62.1,60.7,29.89,East,84,0.0,0.0,95,0.00,,---,0.00,VWS V14.01,2014-07-23 05:05:00,
2014-07-23 01:09:00,62.2,61.0,29.89,East,84,0.0,0.0,96,0.00,,---,0.00,VWS V14.01,2014-07-23 05:09:00,
2014-07-23 01:10:00,62.1,61.0,29.89,East,85,0.0,0.0,96,0.00,,---,0.00,VWS V14.01,2014-07-23 05:10:00,
2014-07-23 01:15:00,62.2,61.0,29.89,East,85,0.0,0.0,96,0.00,,---,0.00,VWS V14.01,2014-07-23 05:15:00,
2014-07-23 01:16:00,62.1,60.7,29.89,East,85,0.0,0.0,95,0.00,,---,0.00,VWS V14.01,2014-07-23 05:16:00,
2014-07-23 01:20:00,61.8,60.4,29.89,East,85,0.0,0.0,95,0.00,,---,0.00,VWS V14.01,2014-07-23 05:20:00,
2014-07-23 01:21:00,61.8,60.4,29.89,East,85,0.0,0.0,95,0.00,,---,0.00,VWS V14.01,2014-07-23 05:21:00,
2014-07-23 01:22:00,61.8,60.4,29.89,East,86,0.0,0.0,95,0.00,,---,0.00,VWS V14.01,2014-07-23 05:22:00,
2014-07-23 01:25:00,61.7,60.3,29.89,East,86,0.0,0.0,95,0.00,,---,0.00,VWS V14.01,2014-07-23 05:25:00,
2014-07-23 01:26:00,61.6,60.2,29.89,East,86,0.0,0.0,95,0.00,,---,0.00,VWS V14.01,2014-07-23 05:26:00,
2014-07-23 01:27:00,61.6,60.2,29.88,East,86,0.0,0.0,95,0.00,,---,0.00,VWS V14.01,2014-07-23 05:27:00,
2014-07-23 01:30:00,61.5,60.1,29.89,East,86,0.0,0.0,95,0.00,,---,0.00,VWS V14.01,2014-07-23 05:30:00,
2014-07-23 01:31:00,61.4,60.0,29.89,East,86,0.0,0.0,95,0.00,,---,0.00,VWS V14.01,2014-07-23 05:31:00,
2014-07-23 01:32:00,61.4,60.0,29.89,East,86,0.0,0.0,95,0.00,,---,0.00,VWS V14.01,2014-07-23 05:32:00,
2014-07-23 01:35:00,61.4,60.0,29.89,East,86,0.0,0.0,95,0.00,,---,0.00,VWS V14.01,2014-07-23 05:35:00,
2014-07-23 01:36:00,61.4,60.0,29.88,East,86,0.0,0.0,95,0.00,,---,0.00,VWS V14.01,2014-07-23 05:36:00,
2014-07-23 01:37:00,61.3,59.9,29.88,East,86,0.0,0.0,95,0.00,,---,0.00,VWS V14.01,2014-07-23 05:37:00,
2014-07-23 01:40:00,61.3,59.9,29.89,East,86,0.0,0.0,95,0.00,,---,0.00,VWS V14.01,2014-07-23 05:40:00,
2014-07-23 01:41:00,61.2,60.0,29.88,East,86,0.0,0.0,96,0.00,,---,0.00,VWS V14.01,2014-07-23 05:41:00,
2014-07-23 01:42:00,61.2,60.0,29.88,East,86,0.0,0.0,96,0.00,,---,0.00,VWS V14.01,2014-07-23 05:42:00,
2014-07-23 01:45:00,61.1,60.0,29.88,East,86,0.0,0.0,96,0.00,,---,0.00,VWS V14.01,2014-07-23 05:45:00,
2014-07-23 01:46:00,61.1,60.0,29.88,East,86,0.0,0.0,96,0.00,,---,0.00,VWS V14.01,2014-07-23 05:46:00,
2014-07-23 01:47:00,61.1,60.0,29.88,East,86,0.0,0.0,96,0.00,,---,0.00,VWS V14.01,2014-07-23 05:47:00,
2014-07-23 01:48:00,61.1,60.0,29.88,East,86,0.0,0.0,96,0.00,,---,0.00,VWS V14.01,2014-07-23 05:48:00,
2014-07-23 01:50:00,61.1,60.0,29.88,East,86,0.0,0.0,96,0.00,,---,0.00,VWS V14.01,2014-07-23 05:50:00,
2014-07-23 01:51:00,61.1,60.0,29.88,East,86,0.0,0.0,96,0.00,,---,0.00,VWS V14.01,2014-07-23 05:51:00,
2014-07-23 01:52:00,61.1,60.0,29.88,East,86,0.0,0.0,96,0.00,,---,0.00,VWS V14.01,2014-07-23 05:52:00,
2014-07-23 01:53:00,61.1,60.0,29.88,East,86,0.0,0.0,96,0.00,,---,0.00,VWS V14.01,2014-07-23 05:53:00,
2014-07-23 01:55:00,61.0,59.9,29.88,East,86,0.0,0.0,96,0.00,,---,0.00,VWS V14.01,2014-07-23 05:55:00,
2014-07-23 01:56:00,61.1,60.0,29.88,East,86,0.0,0.0,96,0.00,,---,0.00,VWS V14.01,2014-07-23 05:56:00,
2014-07-23 01:57:00,61.1,60.0,29.88,East,86,0.0,0.0,96,0.00,,---,0.00,VWS V14.01,2014-07-23 05:57:00,
2014-07-23 01:58:00,61.1,60.0,29.88,East,86,0.0,0.0,96,0.00,,---,0.00,VWS V14.01,2014-07-23 05:58:00,
2014-07-23 01:59:00,61.1,60.0,29.88,East,86,0.0,0.0,96,0.00,,---,0.00,VWS V14.01,2014-07-23 05:59:00,
2014-07-23 02:01:00,61.1,60.0,29.88,East,86,0.0,0.0,96,0.00,,---,0.00,VWS V14.01,2014-07-23 06:01:00,
2014-07-23 02:02:00,61.2,60.0,29.88,East,86,0.0,0.0,96,0.00,,---,0.00,VWS V14.01,2014-07-23 06:02:00,
2014-07-23 02:03:00,61.2,60.0,29.88,East,86,0.0,0.0,96,0.00,,---,0.00,VWS V14.01,2014-07-23 06:03:00,
2014-07-23 02:04:00,61.2,60.0,29.88,East,86,0.0,0.0,96,0.00,,---,0.00,VWS V14.01,2014-07-23 06:04:00,
2014-07-23 02:06:00,61.2,60.0,29.88,East,86,0.0,0.0,96,0.00,,---,0.00,VWS V14.01,2014-07-23 06:06:00,
2014-07-23 02:07:00,61.2,60.0,29.88,East,86,0.0,0.0,96,0.00,,---,0.00,VWS V14.01,2014-07-23 06:07:00,
2014-07-23 02:08:00,61.1,60.0,29.88,East,86,0.0,0.0,96,0.00,,---,0.00,VWS V14.01,2014-07-23 06:08:00,
2014-07-23 02:09:00,61.1,60.0,29.88,East,86,0.0,0.0,96,0.00,,---,0.00,VWS V14.01,2014-07-23 06:09:00,
2014-07-23 02:11:00,61.1,60.0,29.88,East,86,0.0,0.0,96,0.00,,---,0.00,VWS V14.01,2014-07-23 06:11:00,
2014-07-23 02:12:00,61.1,60.0,29.88,East,86,0.0,0.0,96,0.00,,---,0.00,VWS V14.01,2014-07-23 06:12:00,
2014-07-23 02:13:00,61.1,60.0,29.88,East,86,0.0,0.0,96,0.00,,---,0.00,VWS V14.01,2014-07-23 06:13:00,
2014-07-23 02:14:00,61.1,60.0,29.88,East,86,0.0,0.0,96,0.00,,---,0.00,VWS V14.01,2014-07-23 06:14:00,
2014-07-23 02:15:00,61.1,60.0,29.88,East,86,0.0,0.0,96,0.00,,---,0.00,VWS V14.01,2014-07-23 06:15:00,
2014-07-23 02:16:00,61.1,60.0,29.88,East,86,0.0,0.0,96,0.00,,---,0.00,VWS V14.01,2014-07-23 06:16:00,
2014-07-23 02:17:00,61.1,60.0,29.88,East,86,0.0,0.0,96,0.00,,---,0.00,VWS V14.01,2014-07-23 06:17:00,
2014-07-23 02:18:00,61.1,60.0,29.88,East,86,0.0,0.0,96,0.00,,---,0.00,VWS V14.01,2014-07-23 06:18:00,
2014-07-23 02:19:00,61.1,60.0,29.88,East,86,0.0,0.0,96,0.00,,---,0.00,VWS V14.01,2014-07-23 06:19:00,
2014-07-23 02:20:00,61.0,59.9,29.88,East,86,0.0,0.0,96,0.00,,---,0.00,VWS V14.01,2014-07-23 06:20:00,
2014-07-23 02:21:00,61.0,59.9,29.88,East,86,0.0,0.0,96,0.00,,---,0.00,VWS V14.01,2014-07-23 06:21:00,
2014-07-23 02:22:00,61.0,59.9,29.88,East,86,0.0,0.0,96,0.00,,---,0.00,VWS V14.01,2014-07-23 06:22:00,
2014-07-23 02:23:00,61.0,59.9,29.88,East,86,0.0,0.0,96,0.00,,---,0.00,VWS V14.01,2014-07-23 06:23:00,
2014-07-23 02:25:00,61.0,59.9,29.88,East,86,0.0,0.0,96,0.00,,---,0.00,VWS V14.01,2014-07-23 06:25:00,
2014-07-23 02:26:00,60.9,59.8,29.88,East,86,0.0,0.0,96,0.00,,---,0.00,VWS V14.01,2014-07-23 06:26:00,
2014-07-23 02:27:00,60.9,59.8,29.88,East,86,0.0,0.0,96,0.00,,---,0.00,VWS V14.01,2014-07-23 06:27:00,
2014-07-23 02:28:00,60.8,59.7,29.88,East,86,0.0,0.0,96,0.00,,---,0.00,VWS V14.01,2014-07-23 06:28:00,
2014-07-23 02:30:00,60.8,59.7,29.88,East,86,0.0,0.0,96,0.00,,---,0.00,VWS V14.01,2014-07-23 06:30:00,
2014-07-23 02:31:00,60.7,59.6,29.88,East,86,0.0,0.0,96,0.00,,---,0.00,VWS V14.01,2014-07-23 06:31:00,
2014-07-23 02:32:00,60.7,59.6,29.88,East,86,0.0,0.0,96,0.00,,---,0.00,VWS V14.01,2014-07-23 06:32:00,
2014-07-23 02:33:00,60.7,59.6,29.87,East,86,0.0,0.0,96,0.00,,---,0.00,VWS V14.01,2014-07-23 06:33:00,
2014-07-23 02:35:00,60.6,59.5,29.88,East,86,0.0,0.0,96,0.00,,---,0.00,VWS V14.01,2014-07-23 06:35:00,
2014-07-23 02:36:00,60.6,59.5,29.88,East,86,0.0,0.0,96,0.00,,---,0.00,VWS V14.01,2014-07-23 06:36:00,
2014-07-23 02:37:00,60.6,59.5,29.88,East,86,0.0,0.0,96,0.00,,---,0.00,VWS V14.01,2014-07-23 06:37:00,
2014-07-23 02:38:00,60.6,59.5,29.88,East,86,0.0,0.0,96,0.00,,---,0.00,VWS V14.01,2014-07-23 06:38:00,
2014-07-23 02:39:00,60.6,59.5,29.88,East,86,0.0,0.0,96,0.00,,---,0.00,VWS V14.01,2014-07-23 06:39:00,
2014-07-23 02:40:00,60.6,59.5,29.88,East,86,0.0,0.0,96,0.00,,---,0.00,VWS V14.01,2014-07-23 06:40:00,
2014-07-23 02:41:00,60.6,59.5,29.88,East,86,0.0,0.0,96,0.00,,---,0.00,VWS V14.01,2014-07-23 06:41:00,
2014-07-23 02:42:00,60.6,59.5,29.87,East,86,0.0,0.0,96,0.00,,---,0.00,VWS V14.01,2014-07-23 06:42:00,
2014-07-23 02:43:00,60.6,59.5,29.87,East,86,0.0,0.0,96,0.00,,---,0.00,VWS V14.01,2014-07-23 06:43:00,
2014-07-23 02:44:00,60.6,59.5,29.87,East,86,0.0,0.0,96,0.00,,---,0.00,VWS V14.01,2014-07-23 06:44:00,
2014-07-23 02:45:00,60.7,59.6,29.87,East,86,0.0,0.0,96,0.00,,---,0.00,VWS V14.01,2014-07-23 06:45:00,
2014-07-23 02:47:00,60.7,59.6,29.87,East,86,0.0,0.0,96,0.00,,---,0.00,VWS V14.01,2014-07-23 06:47:00,
2014-07-23 02:48:00,60.7,59.6,29.87,East,86,0.0,0.0,96,0.00,,---,0.00,VWS V14.01,2014-07-23 06:48:00,
2014-07-23 02:49:00,60.6,59.5,29.87,East,86,0.0,0.0,96,0.00,,---,0.00,VWS V14.01,2014-07-23 06:49:00,
2014-07-23 02:50:00,60.6,59.5,29.87,East,86,0.0,0.0,96,0.00,,---,0.00,VWS V14.01,2014-07-23 06:50:00,
2014-07-23 02:52:00,60.6,59.5,29.87,East,86,0.0,0.0,96,0.00,,---,0.00,VWS V14.01,2014-07-23 06:52:00,
2014-07-23 02:53:00,60.5,59.4,29.87,East,86,0.0,0.0,96,0.00,,---,0.00,VWS V14.01,2014-07-23 06:53:00,
2014-07-23 02:54:00,60.5,59.4,29.87,East,86,0.0,0.0,96,0.00,,---,0.00,VWS V14.01,2014-07-23 06:54:00,
2014-07-23 02:55:00,60.5,59.4,29.87,East,86,0.0,0.0,96,0.00,,---,0.00,VWS V14.01,2014-07-23 06:55:00,
2014-07-23 02:57:00,60.5,59.4,29.87,East,87,0.0,0.0,96,0.00,,---,0.00,VWS V14.01,2014-07-23 06:57:00,
2014-07-23 02:58:00,60.5,59.4,29.87,East,87,0.0,0.0,96,0.00,,---,0.00,VWS V14.01,2014-07-23 06:58:00,
2014-07-23 02:59:00,60.5,59.4,29.87,East,87,0.0,0.0,96,0.00,,---,0.00,VWS V14.01,2014-07-23 06:59:00,
2014-07-23 03:01:00,60.6,59.5,29.86,East,87,0.0,0.0,96,0.00,,---,0.00,VWS V14.01,2014-07-23 07:01:00,
2014-07-23 03:03:00,60.6,59.5,29.86,East,88,0.0,0.0,96,0.00,,---,0.00,VWS V14.01,2014-07-23 07:03:00,
2014-07-23 03:04:00,60.7,59.6,29.86,East,88,0.0,0.0,96,0.00,,---,0.00,VWS V14.01,2014-07-23 07:04:00,
2014-07-23 03:06:00,60.7,59.6,29.87,East,88,0.0,0.0,96,0.00,,---,0.00,VWS V14.01,2014-07-23 07:06:00,
2014-07-23 03:08:00,60.8,59.7,29.87,East,87,0.0,0.0,96,0.00,,---,0.00,VWS V14.01,2014-07-23 07:08:00,
2014-07-23 03:09:00,60.7,59.6,29.87,East,88,0.0,0.0,96,0.00,,---,0.00,VWS V14.01,2014-07-23 07:09:00,
2014-07-23 03:10:00,60.7,59.6,29.87,East,88,0.0,0.0,96,0.00,,---,0.00,VWS V14.01,2014-07-23 07:10:00,
2014-07-23 03:12:00,60.7,59.6,29.87,East,88,0.0,0.0,96,0.00,,---,0.00,VWS V14.01,2014-07-23 07:12:00,
2014-07-23 03:13:00,60.7,59.6,29.87,East,87,0.0,0.0,96,0.00,,---,0.00,VWS V14.01,2014-07-23 07:13:00,
2014-07-23 03:14:00,60.7,59.6,29.87,East,88,0.0,0.0,96,0.00,,---,0.00,VWS V14.01,2014-07-23 07:14:00,
2014-07-23 03:15:00,60.7,59.6,29.87,East,88,0.0,0.0,96,0.00,,---,0.00,VWS V14.01,2014-07-23 07:15:00,
2014-07-23 03:17:00,60.7,59.6,29.86,East,87,0.0,0.0,96,0.00,,---,0.00,VWS V14.01,2014-07-23 07:17:00,
2014-07-23 03:18:00,60.6,59.5,29.86,East,87,0.0,0.0,96,0.00,,---,0.00,VWS V14.01,2014-07-23 07:18:00,
2014-07-23 03:19:00,60.6,59.5,29.87,East,88,0.0,0.0,96,0.00,,---,0.00,VWS V14.01,2014-07-23 07:19:00,
2014-07-23 03:20:00,60.6,59.5,29.87,East,88,0.0,0.0,96,0.00,,---,0.00,VWS V14.01,2014-07-23 07:20:00,
2014-07-23 03:22:00,60.6,59.5,29.87,East,88,0.0,0.0,96,0.00,,---,0.00,VWS V14.01,2014-07-23 07:22:00,
2014-07-23 03:23:00,60.6,59.5,29.87,East,88,0.0,0.0,96,0.00,,---,0.00,VWS V14.01,2014-07-23 07:23:00,
2014-07-23 03:24:00,60.5,59.4,29.87,East,87,0.0,0.0,96,0.00,,---,0.00,VWS V14.01,2014-07-23 07:24:00,
2014-07-23 03:25:00,60.5,59.4,29.87,East,87,0.0,0.0,96,0.00,,---,0.00,VWS V14.01,2014-07-23 07:25:00,
2014-07-23 03:27:00,60.4,59.3,29.87,East,88,0.0,0.0,96,0.00,,---,0.00,VWS V14.01,2014-07-23 07:27:00,
2014-07-23 03:28:00,60.4,59.3,29.87,East,88,0.0,0.0,96,0.00,,---,0.00,VWS V14.01,2014-07-23 07:28:00,
2014-07-23 03:29:00,60.4,59.3,29.87,East,87,0.0,0.0,96,0.00,,---,0.00,VWS V14.01,2014-07-23 07:29:00,
2014-07-23 03:30:00,60.5,59.4,29.87,East,87,0.0,0.0,96,0.00,,---,0.00,VWS V14.01,2014-07-23 07:30:00,
2014-07-23 03:33:00,60.4,59.3,29.87,East,87,0.0,0.0,96,0.00,,---,0.00,VWS V14.01,2014-07-23 07:33:00,
2014-07-23 03:34:00,60.4,59.3,29.87,East,87,0.0,0.0,96,0.00,,---,0.00,VWS V14.01,2014-07-23 07:34:00,
2014-07-23 03:35:00,60.4,59.3,29.86,East,88,0.0,0.0,96,0.00,,---,0.00,VWS V14.01,2014-07-23 07:35:00,
2014-07-23 03:37:00,60.4,59.3,29.86,East,87,0.0,0.0,96,0.00,,---,0.00,VWS V14.01,2014-07-23 07:37:00,
2014-07-23 03:38:00,60.3,59.2,29.86,East,87,0.0,0.0,96,0.00,,---,0.00,VWS V14.01,2014-07-23 07:38:00,
2014-07-23 03:39:00,60.3,59.2,29.86,East,87,0.0,0.0,96,0.00,,---,0.00,VWS V14.01,2014-07-23 07:39:00,
2014-07-23 03:40:00,60.3,59.2,29.86,East,87,0.0,0.0,96,0.00,,---,0.00,VWS V14.01,2014-07-23 07:40:00,
2014-07-23 03:42:00,60.3,59.2,29.86,East,87,0.0,0.0,96,0.00,,---,0.00,VWS V14.01,2014-07-23 07:42:00,
2014-07-23 03:43:00,60.3,59.2,29.86,East,87,0.0,0.0,96,0.00,,---,0.00,VWS V14.01,2014-07-23 07:43:00,
2014-07-23 03:45:00,60.3,59.2,29.86,East,88,0.0,0.0,96,0.00,,---,0.00,VWS V14.01,2014-07-23 07:45:00,
2014-07-23 03:46:00,60.3,59.2,29.86,East,87,0.0,0.0,96,0.00,,---,0.00,VWS V14.01,2014-07-23 07:46:00,
2014-07-23 03:47:00,60.3,59.2,29.86,East,87,0.0,0.0,96,0.00,,---,0.00,VWS V14.01,2014-07-23 07:47:00,
2014-07-23 03:48:00,60.3,59.2,29.86,East,87,0.0,0.0,96,0.00,,---,0.00,VWS V14.01,2014-07-23 07:48:00,
2014-07-23 03:50:00,60.3,59.2,29.86,East,90,0.0,0.0,96,0.00,,---,0.00,VWS V14.01,2014-07-23 07:50:00,
2014-07-23 03:51:00,60.3,59.2,29.86,East,91,0.0,0.0,96,0.00,,---,0.00,VWS V14.01,2014-07-23 07:51:00,
2014-07-23 03:53:00,60.2,59.1,29.86,East,90,0.0,0.0,96,0.00,,---,0.00,VWS V14.01,2014-07-23 07:53:00,
2014-07-23 03:54:00,60.2,59.1,29.86,East,90,0.0,0.0,96,0.00,,---,0.00,VWS V14.01,2014-07-23 07:54:00,
2014-07-23 03:55:00,60.2,59.1,29.86,East,90,0.0,0.0,96,0.00,,---,0.00,VWS V14.01,2014-07-23 07:55:00,
2014-07-23 03:56:00,60.1,59.0,29.85,East,90,0.0,0.0,96,0.00,,---,0.00,VWS V14.01,2014-07-23 07:56:00,
2014-07-23 03:58:00,60.1,59.0,29.86,East,91,0.0,0.0,96,0.00,,---,0.00,VWS V14.01,2014-07-23 07:58:00,
2014-07-23 03:59:00,60.1,59.0,29.86,East,90,0.0,0.0,96,0.00,,---,0.00,VWS V14.01,2014-07-23 07:59:00,
2014-07-23 04:00:00,60.1,59.0,29.85,East,91,0.0,0.0,96,0.00,,---,0.00,VWS V14.01,2014-07-23 08:00:00,
2014-07-23 04:01:00,60.2,59.1,29.85,East,91,0.0,0.0,96,0.00,,---,0.00,VWS V14.01,2014-07-23 08:01:00,
2014-07-23 04:03:00,60.1,59.0,29.85,East,86,0.0,1.0,96,0.00,,---,0.00,VWS V14.01,2014-07-23 08:03:00,
2014-07-23 04:04:00,60.1,59.0,29.85,East,86,0.0,0.0,96,0.00,,---,0.00,VWS V14.01,2014-07-23 08:04:00,
2014-07-23 04:05:00,60.1,59.0,29.85,East,86,0.0,0.0,96,0.00,,---,0.00,VWS V14.01,2014-07-23 08:05:00,
2014-07-23 04:06:00,60.1,59.0,29.85,East,86,0.0,0.0,96,0.00,,---,0.00,VWS V14.01,2014-07-23 08:06:00,
2014-07-23 04:08:00,60.1,59.0,29.85,East,86,0.0,0.0,96,0.00,,---,0.00,VWS V14.01,2014-07-23 08:08:00,
2014-07-23 04:09:00,60.1,59.0,29.85,East,86,0.0,0.0,96,0.00,,---,0.00,VWS V14.01,2014-07-23 08:09:00,
2014-07-23 04:10:00,60.1,59.0,29.85,East,86,0.0,0.0,96,0.00,,---,0.00,VWS V14.01,2014-07-23 08:10:00,
2014-07-23 04:11:00,60.1,59.0,29.85,East,86,0.0,0.0,96,0.00,,---,0.00,VWS V14.01,2014-07-23 08:11:00,
2014-07-23 04:14:00,60.1,59.0,29.85,East,86,0.0,0.0,96,0.00,,---,0.00,VWS V14.01,2014-07-23 08:14:00,
2014-07-23 04:15:00,60.0,58.9,29.85,East,82,0.0,0.0,96,0.00,,---,0.00,VWS V14.01,2014-07-23 08:15:00,
2014-07-23 04:16:00,60.0,58.9,29.85,East,82,0.0,0.0,96,0.00,,---,0.00,VWS V14.01,2014-07-23 08:16:00,
2014-07-23 04:19:00,60.0,58.9,29.85,East,82,0.0,0.0,96,0.00,,---,0.00,VWS V14.01,2014-07-23 08:19:00,
2014-07-23 04:20:00,60.0,58.9,29.85,East,82,0.0,0.0,96,0.00,,---,0.00,VWS V14.01,2014-07-23 08:20:00,
2014-07-23 04:21:00,60.0,58.9,29.85,East,82,0.0,0.0,96,0.00,,---,0.00,VWS V14.01,2014-07-23 08:21:00,
2014-07-23 04:24:00,60.0,58.9,29.85,East,82,0.0,0.0,96,0.00,,---,0.00,VWS V14.01,2014-07-23 08:24:00,
2014-07-23 04:25:00,60.0,58.9,29.85,East,82,0.0,0.0,96,0.00,,---,0.00,VWS V14.01,2014-07-23 08:25:00,
2014-07-23 04:26:00,60.0,58.9,29.85,East,82,0.0,0.0,96,0.00,,---,0.00,VWS V14.01,2014-07-23 08:26:00,
2014-07-23 04:27:00,59.9,58.8,29.85,East,82,0.0,0.0,96,0.00,,---,0.00,VWS V14.01,2014-07-23 08:27:00,
2014-07-23 04:29:00,59.9,58.8,29.85,East,82,0.0,0.0,96,0.00,,---,0.00,VWS V14.01,2014-07-23 08:29:00,
2014-07-23 04:30:00,59.9,58.8,29.85,East,82,0.0,0.0,96,0.00,,---,0.00,VWS V14.01,2014-07-23 08:30:00,
2014-07-23 04:31:00,59.9,58.8,29.85,East,82,0.0,0.0,96,0.00,,---,0.00,VWS V14.01,2014-07-23 08:31:00,
2014-07-23 04:32:00,60.0,58.9,29.85,East,82,0.0,0.0,96,0.00,,---,0.00,VWS V14.01,2014-07-23 08:32:00,
2014-07-23 04:34:00,60.0,58.9,29.85,East,82,0.0,0.0,96,0.00,,---,0.00,VWS V14.01,2014-07-23 08:34:00,
2014-07-23 04:35:00,60.0,58.9,29.85,East,82,0.0,0.0,96,0.00,,---,0.00,VWS V14.01,2014-07-23 08:35:00,
2014-07-23 04:36:00,60.0,58.9,29.85,East,82,0.0,0.0,96,0.00,,---,0.00,VWS V14.01,2014-07-23 08:36:00,
2014-07-23 04:37:00,60.0,58.9,29.85,East,82,0.0,0.0,96,0.00,,---,0.00,VWS V14.01,2014-07-23 08:37:00,
2014-07-23 04:39:00,60.0,58.9,29.85,East,82,0.0,0.0,96,0.00,,---,0.00,VWS V14.01,2014-07-23 08:39:00,
2014-07-23 04:40:00,60.0,58.9,29.85,East,82,0.0,0.0,96,0.00,,---,0.00,VWS V14.01,2014-07-23 08:40:00,
2014-07-23 04:41:00,60.0,58.9,29.85,East,82,0.0,0.0,96,0.00,,---,0.00,VWS V14.01,2014-07-23 08:41:00,
2014-07-23 04:42:00,60.0,58.9,29.85,East,82,0.0,0.0,96,0.00,,---,0.00,VWS V14.01,2014-07-23 08:42:00,
2014-07-23 04:45:00,60.0,58.9,29.85,East,82,0.0,0.0,96,0.00,,---,0.00,VWS V14.01,2014-07-23 08:45:00,
2014-07-23 04:46:00,60.0,58.9,29.85,East,82,0.0,0.0,96,0.00,,---,0.00,VWS V14.01,2014-07-23 08:46:00,
2014-07-23 04:47:00,60.0,58.9,29.85,East,82,0.0,0.0,96,0.00,,---,0.00,VWS V14.01,2014-07-23 08:47:00,
2014-07-23 04:50:00,60.0,58.9,29.85,East,84,0.0,0.0,96,0.00,,---,0.00,VWS V14.01,2014-07-23 08:50:00,
2014-07-23 04:51:00,60.1,59.0,29.85,East,84,0.0,0.0,96,0.00,,---,0.00,VWS V14.01,2014-07-23 08:51:00,
2014-07-23 04:53:00,60.1,59.0,29.85,East,83,0.0,0.0,96,0.00,,---,0.00,VWS V14.01,2014-07-23 08:53:00,
2014-07-23 04:55:00,60.1,59.0,29.85,East,83,0.0,0.0,96,0.00,,---,0.00,VWS V14.01,2014-07-23 08:55:00,
2014-07-23 04:56:00,60.1,59.0,29.85,East,83,0.0,0.0,96,0.00,,---,0.00,VWS V14.01,2014-07-23 08:56:00,
2014-07-23 04:57:00,60.1,59.0,29.85,East,84,0.0,0.0,96,0.00,,---,0.00,VWS V14.01,2014-07-23 08:57:00,
2014-07-23 04:58:00,60.1,59.0,29.85,East,84,0.0,0.0,96,0.00,,---,0.00,VWS V14.01,2014-07-23 08:58:00,
2014-07-23 05:00:00,60.2,59.1,29.85,East,84,0.0,0.0,96,0.00,,---,0.00,VWS V14.01,2014-07-23 09:00:00,
2014-07-23 05:01:00,60.3,59.2,29.85,East,84,0.0,0.0,96,0.00,,---,0.00,VWS V14.01,2014-07-23 09:01:00,
2014-07-23 05:02:00,60.3,59.2,29.85,East,84,0.0,0.0,96,0.00,,---,0.00,VWS V14.01,2014-07-23 09:02:00,
2014-07-23 05:03:00,60.3,59.2,29.85,East,83,0.0,0.0,96,0.00,,---,0.00,VWS V14.01,2014-07-23 09:03:00,
2014-07-23 05:05:00,60.3,59.2,29.85,East,84,0.0,0.0,96,0.00,,---,0.00,VWS V14.01,2014-07-23 09:05:00,
2014-07-23 05:06:00,60.3,59.2,29.85,East,84,0.0,0.0,96,0.00,,---,0.00,VWS V14.01,2014-07-23 09:06:00,
2014-07-23 05:07:00,60.3,59.2,29.85,East,84,0.0,0.0,96,0.00,,---,0.00,VWS V14.01,2014-07-23 09:07:00,
2014-07-23 05:08:00,60.3,59.2,29.85,East,84,0.0,0.0,96,0.00,,---,0.00,VWS V14.01,2014-07-23 09:08:00,
2014-07-23 05:10:00,60.3,59.2,29.84,East,84,0.0,0.0,96,0.00,,---,0.00,VWS V14.01,2014-07-23 09:10:00,
2014-07-23 05:11:00,60.3,59.2,29.84,East,84,0.0,0.0,96,0.00,,---,0.00,VWS V14.01,2014-07-23 09:11:00,
2014-07-23 05:12:00,60.3,59.2,29.84,East,84,0.0,0.0,96,0.00,,---,0.00,VWS V14.01,2014-07-23 09:12:00,
2014-07-23 05:13:00,60.3,59.2,29.84,East,83,0.0,0.0,96,0.00,,---,0.00,VWS V14.01,2014-07-23 09:13:00,
2014-07-23 05:15:00,60.2,59.1,29.84,East,83,0.0,0.0,96,0.00,,---,0.00,VWS V14.01,2014-07-23 09:15:00,
2014-07-23 05:16:00,60.2,59.1,29.84,East,83,0.0,0.0,96,0.00,,---,0.00,VWS V14.01,2014-07-23 09:16:00,
2014-07-23 05:17:00,60.2,59.1,29.85,East,83,0.0,0.0,96,0.00,,---,0.00,VWS V14.01,2014-07-23 09:17:00,
2014-07-23 05:18:00,60.1,59.0,29.85,East,84,0.0,0.0,96,0.00,,---,0.00,VWS V14.01,2014-07-23 09:18:00,
2014-07-23 05:19:00,60.1,59.0,29.84,East,83,0.0,0.0,96,0.00,,---,0.00,VWS V14.01,2014-07-23 09:19:00,
2014-07-23 05:20:00,60.1,59.0,29.84,East,83,0.0,0.0,96,0.00,,---,0.00,VWS V14.01,2014-07-23 09:20:00,
2014-07-23 05:21:00,60.1,59.0,29.84,East,84,0.0,0.0,96,0.00,,---,0.00,VWS V14.01,2014-07-23 09:21:00,
2014-07-23 05:22:00,60.2,59.1,29.84,East,84,0.0,0.0,96,0.00,,---,0.00,VWS V14.01,2014-07-23 09:22:00,
2014-07-23 05:23:00,60.1,59.0,29.84,East,84,0.0,0.0,96,0.00,,---,0.00,VWS V14.01,2014-07-23 09:23:00,
2014-07-23 05:24:00,60.1,59.0,29.84,East,84,0.0,0.0,96,0.00,,---,0.00,VWS V14.01,2014-07-23 09:24:00,
2014-07-23 05:25:00,60.0,58.9,29.84,East,84,0.0,0.0,96,0.00,,---,0.00,VWS V14.01,2014-07-23 09:25:00,
2014-07-23 05:26:00,60.0,58.9,29.84,East,84,0.0,0.0,96,0.00,,---,0.00,VWS V14.01,2014-07-23 09:26:00,
2014-07-23 05:27:00,60.0,58.9,29.84,East,84,0.0,0.0,96,0.00,,---,0.00,VWS V14.01,2014-07-23 09:27:00,
2014-07-23 05:28:00,60.0,58.9,29.84,East,84,0.0,0.0,96,0.00,,---,0.00,VWS V14.01,2014-07-23 09:28:00,
2014-07-23 05:29:00,60.0,58.9,29.84,East,84,0.0,0.0,96,0.00,,---,0.00,VWS V14.01,2014-07-23 09:29:00,
2014-07-23 05:30:00,60.0,58.9,29.85,East,82,0.0,0.0,96,0.00,,---,0.00,VWS V14.01,2014-07-23 09:30:00,
2014-07-23 05:31:00,60.0,58.9,29.85,East,82,0.0,0.0,96,0.00,,---,0.00,VWS V14.01,2014-07-23 09:31:00,
2014-07-23 05:32:00,59.9,58.8,29.84,East,82,0.0,0.0,96,0.00,,---,0.00,VWS V14.01,2014-07-23 09:32:00,
2014-07-23 05:33:00,59.9,58.8,29.85,East,82,0.0,0.0,96,0.00,,---,0.00,VWS V14.01,2014-07-23 09:33:00,
2014-07-23 05:34:00,59.9,58.8,29.85,East,82,0.0,0.0,96,0.00,,---,0.00,VWS V14.01,2014-07-23 09:34:00,
2014-07-23 05:36:00,59.9,58.8,29.84,East,82,0.0,0.0,96,0.00,,---,0.00,VWS V14.01,2014-07-23 09:36:00,
2014-07-23 05:37:00,59.9,58.8,29.84,East,82,0.0,0.0,96,0.00,,---,0.00,VWS V14.01,2014-07-23 09:37:00,
2014-07-23 05:38:00,59.9,58.8,29.84,East,82,0.0,0.0,96,0.00,,---,0.00,VWS V14.01,2014-07-23 09:38:00,
2014-07-23 05:39:00,59.9,58.8,29.84,East,82,0.0,0.0,96,0.00,,---,0.00,VWS V14.01,2014-07-23 09:39:00,
2014-07-23 05:41:00,59.9,58.8,29.84,East,83,0.0,0.0,96,0.00,,---,0.00,VWS V14.01,2014-07-23 09:41:00,
2014-07-23 05:42:00,59.9,58.8,29.84,East,84,0.0,0.0,96,0.00,,---,0.00,VWS V14.01,2014-07-23 09:42:00,
2014-07-23 05:43:00,60.0,58.9,29.84,East,84,0.0,0.0,96,0.00,,---,0.00,VWS V14.01,2014-07-23 09:43:00,
2014-07-23 05:44:00,60.1,59.0,29.84,East,90,0.0,0.0,96,0.00,,---,0.00,VWS V14.01,2014-07-23 09:44:00,
2014-07-23 05:46:00,60.3,59.2,29.84,East,91,0.0,0.0,96,0.00,,---,0.00,VWS V14.01,2014-07-23 09:46:00,
2014-07-23 05:47:00,60.4,59.3,29.84,East,92,0.0,0.0,96,0.00,,---,0.00,VWS V14.01,2014-07-23 09:47:00,
2014-07-23 05:48:00,60.4,59.3,29.85,East,92,0.0,0.0,96,0.00,,---,0.00,VWS V14.01,2014-07-23 09:48:00,
2014-07-23 05:49:00,60.4,59.3,29.85,East,91,0.0,0.0,96,0.00,,---,0.00,VWS V14.01,2014-07-23 09:49:00,
2014-07-23 05:51:00,60.1,59.0,29.85,East,91,0.0,0.0,96,0.00,,---,0.00,VWS V14.01,2014-07-23 09:51:00,
2014-07-23 05:52:00,60.1,59.0,29.85,East,90,0.0,0.0,96,0.00,,---,0.00,VWS V14.01,2014-07-23 09:52:00,
2014-07-23 05:53:00,60.1,59.0,29.85,East,90,0.0,0.0,96,0.00,,---,0.00,VWS V14.01,2014-07-23 09:53:00,
2014-07-23 05:54:00,60.1,59.0,29.85,East,90,0.0,0.0,96,0.00,,---,0.00,VWS V14.01,2014-07-23 09:54:00,
2014-07-23 05:57:00,60.0,58.9,29.84,East,90,0.0,0.0,96,0.00,,---,0.00,VWS V14.01,2014-07-23 09:57:00,
2014-07-23 05:58:00,60.0,58.9,29.85,East,90,0.0,0.0,96,0.00,,---,0.00,VWS V14.01,2014-07-23 09:58:00,
2014-07-23 05:59:00,60.1,59.0,29.84,East,90,0.0,0.0,96,0.00,,---,0.00,VWS V14.01,2014-07-23 09:59:00,
2014-07-23 06:00:00,60.0,58.9,29.84,East,90,0.0,0.0,96,0.00,,---,0.00,VWS V14.01,2014-07-23 10:00:00,
2014-07-23 06:02:00,60.0,58.9,29.84,East,90,0.0,0.0,96,0.00,,---,0.00,VWS V14.01,2014-07-23 10:02:00,
2014-07-23 06:03:00,60.0,58.9,29.84,East,90,0.0,0.0,96,0.00,,---,0.00,VWS V14.01,2014-07-23 10:03:00,
2014-07-23 06:04:00,60.0,58.9,29.84,East,91,0.0,0.0,96,0.00,,---,0.00,VWS V14.01,2014-07-23 10:04:00,
2014-07-23 06:05:00,60.0,58.9,29.84,East,91,0.0,0.0,96,0.00,,---,0.00,VWS V14.01,2014-07-23 10:05:00,
2014-07-23 06:07:00,60.0,58.9,29.84,East,90,0.0,0.0,96,0.00,,---,0.00,VWS V14.01,2014-07-23 10:07:00,
2014-07-23 06:08:00,60.0,58.9,29.85,East,91,0.0,0.0,96,0.00,,---,0.00,VWS V14.01,2014-07-23 10:08:00,
2014-07-23 06:09:00,60.0,58.9,29.84,East,90,0.0,0.0,96,0.00,,---,0.00,VWS V14.01,2014-07-23 10:09:00,
2014-07-23 06:10:00,60.0,58.9,29.84,East,90,0.0,0.0,96,0.00,,---,0.00,VWS V14.01,2014-07-23 10:10:00,
2014-07-23 06:12:00,60.0,58.9,29.84,East,91,0.0,0.0,96,0.00,,---,0.00,VWS V14.01,2014-07-23 10:12:00,
2014-07-23 06:14:00,60.0,58.9,29.84,East,90,0.0,0.0,96,0.00,,---,0.00,VWS V14.01,2014-07-23 10:14:00,
2014-07-23 06:15:00,60.0,58.9,29.84,East,91,0.0,0.0,96,0.00,,---,0.00,VWS V14.01,2014-07-23 10:15:00,
2014-07-23 06:17:00,60.0,58.9,29.84,East,91,0.0,0.0,96,0.00,,---,0.00,VWS V14.01,2014-07-23 10:17:00,
2014-07-23 06:18:00,60.1,59.0,29.84,East,90,0.0,0.0,96,0.00,,---,0.00,VWS V14.01,2014-07-23 10:18:00,
2014-07-23 06:19:00,60.1,59.0,29.84,East,90,0.0,0.0,96,0.00,,---,0.00,VWS V14.01,2014-07-23 10:19:00,
2014-07-23 06:20:00,60.1,59.0,29.84,East,90,0.0,0.0,96,0.00,,---,0.00,VWS V14.01,2014-07-23 10:20:00,
2014-07-23 06:21:00,60.1,59.0,29.84,East,90,0.0,0.0,96,0.00,,---,0.00,VWS V14.01,2014-07-23 10:21:00,
2014-07-23 06:22:00,60.1,59.0,29.84,East,90,0.0,0.0,96,0.00,,---,0.00,VWS V14.01,2014-07-23 10:22:00,
2014-07-23 06:23:00,60.1,59.0,29.84,East,90,0.0,0.0,96,0.00,,---,0.00,VWS V14.01,2014-07-23 10:23:00,
2014-07-23 06:24:00,60.2,59.1,29.84,East,91,0.0,0.0,96,0.00,,---,0.00,VWS V14.01,2014-07-23 10:24:00,
2014-07-23 06:25:00,60.3,59.2,29.84,East,90,0.0,0.0,96,0.00,,---,0.00,VWS V14.01,2014-07-23 10:25:00,
2014-07-23 06:26:00,60.3,59.2,29.84,East,91,0.0,0.0,96,0.00,,---,0.00,VWS V14.01,2014-07-23 10:26:00,
2014-07-23 06:27:00,60.4,59.3,29.84,East,91,0.0,0.0,96,0.00,,---,0.00,VWS V14.01,2014-07-23 10:27:00,
2014-07-23 06:28:00,60.4,59.3,29.84,East,91,0.0,0.0,96,0.00,,---,0.00,VWS V14.01,2014-07-23 10:28:00,
2014-07-23 06:29:00,60.4,59.3,29.84,East,90,0.0,0.0,96,0.00,,---,0.00,VWS V14.01,2014-07-23 10:29:00,
2014-07-23 06:31:00,60.5,59.4,29.84,East,90,0.0,0.0,96,0.00,,---,0.00,VWS V14.01,2014-07-23 10:31:00,
2014-07-23 06:32:00,60.5,59.4,29.84,East,91,0.0,0.0,96,0.00,,---,0.00,VWS V14.01,2014-07-23 10:32:00,
2014-07-23 06:33:00,60.5,59.4,29.84,East,91,0.0,0.0,96,0.00,,---,0.00,VWS V14.01,2014-07-23 10:33:00,
2014-07-23 06:34:00,60.6,59.5,29.84,East,90,0.0,0.0,96,0.00,,---,0.00,VWS V14.01,2014-07-23 10:34:00,
2014-07-23 06:36:00,60.5,59.4,29.84,East,90,0.0,0.0,96,0.00,,---,0.00,VWS V14.01,2014-07-23 10:36:00,
2014-07-23 06:37:00,60.5,59.4,29.84,East,90,0.0,0.0,96,0.00,,---,0.00,VWS V14.01,2014-07-23 10:37:00,
2014-07-23 06:38:00,60.5,59.4,29.84,East,90,0.0,0.0,96,0.00,,---,0.00,VWS V14.01,2014-07-23 10:38:00,
2014-07-23 06:39:00,60.6,59.5,29.84,East,91,0.0,0.0,96,0.00,,---,0.00,VWS V14.01,2014-07-23 10:39:00,
2014-07-23 06:41:00,60.6,59.5,29.84,East,90,0.0,0.0,96,0.00,,---,0.00,VWS V14.01,2014-07-23 10:41:00,
2014-07-23 06:42:00,60.7,59.6,29.84,East,90,0.0,0.0,96,0.00,,---,0.00,VWS V14.01,2014-07-23 10:42:00,
2014-07-23 06:43:00,60.7,59.6,29.84,East,90,0.0,0.0,96,0.00,,---,0.00,VWS V14.01,2014-07-23 10:43:00,
2014-07-23 06:45:00,60.8,59.7,29.84,East,91,0.0,0.0,96,0.00,,---,0.00,VWS V14.01,2014-07-23 10:45:00,
2014-07-23 06:46:00,60.9,59.8,29.84,East,90,0.0,0.0,96,0.00,,---,0.00,VWS V14.01,2014-07-23 10:46:00,
2014-07-23 06:47:00,61.0,59.9,29.84,East,91,0.0,0.0,96,0.00,,---,0.00,VWS V14.01,2014-07-23 10:47:00,
2014-07-23 06:48:00,61.1,60.0,29.84,East,90,0.0,0.0,96,0.00,,---,0.00,VWS V14.01,2014-07-23 10:48:00,
2014-07-23 06:50:00,61.3,60.2,29.84,East,91,0.0,0.0,96,0.00,,---,0.00,VWS V14.01,2014-07-23 10:50:00,
2014-07-23 06:51:00,61.3,60.2,29.84,East,91,0.0,0.0,96,0.00,,---,0.00,VWS V14.01,2014-07-23 10:51:00,
2014-07-23 06:52:00,61.4,60.2,29.84,East,90,0.0,0.0,96,0.00,,---,0.00,VWS V14.01,2014-07-23 10:52:00,
2014-07-23 06:53:00,61.5,60.3,29.84,East,90,0.0,0.0,96,0.00,,---,0.00,VWS V14.01,2014-07-23 10:53:00,
2014-07-23 06:55:00,61.7,60.5,29.84,East,91,0.0,0.0,96,0.00,,---,0.00,VWS V14.01,2014-07-23 10:55:00,
2014-07-23 06:56:00,61.8,60.7,29.84,East,91,0.0,0.0,96,0.00,,---,0.00,VWS V14.01,2014-07-23 10:56:00,
2014-07-23 06:57:00,61.8,60.7,29.84,East,91,0.0,0.0,96,0.00,,---,0.00,VWS V14.01,2014-07-23 10:57:00,
2014-07-23 06:58:00,61.9,60.8,29.84,East,90,0.0,0.0,96,0.00,,---,0.00,VWS V14.01,2014-07-23 10:58:00,
2014-07-23 07:00:00,62.1,61.0,29.84,East,90,0.0,0.0,96,0.00,,---,0.00,VWS V14.01,2014-07-23 11:00:00,
2014-07-23 07:01:00,62.1,61.0,29.84,East,90,0.0,0.0,96,0.00,,---,0.00,VWS V14.01,2014-07-23 11:01:00,
2014-07-23 07:02:00,62.2,61.0,29.84,East,91,0.0,0.0,96,0.00,,---,0.00,VWS V14.01,2014-07-23 11:02:00,
2014-07-23 07:03:00,62.3,61.2,29.84,East,90,0.0,0.0,96,0.00,,---,0.00,VWS V14.01,2014-07-23 11:03:00,
2014-07-23 07:04:00,62.3,61.2,29.84,East,91,0.0,0.0,96,0.00,,---,0.00,VWS V14.01,2014-07-23 11:04:00,
2014-07-23 07:06:00,62.5,61.3,29.84,East,91,0.0,0.0,96,0.00,,---,0.00,VWS V14.01,2014-07-23 11:06:00,
2014-07-23 07:07:00,62.6,61.5,29.84,East,90,0.0,0.0,96,0.00,,---,0.00,VWS V14.01,2014-07-23 11:07:00,
2014-07-23 07:08:00,62.6,61.5,29.84,East,91,0.0,0.0,96,0.00,,---,0.00,VWS V14.01,2014-07-23 11:08:00,
2014-07-23 07:09:00,62.7,61.5,29.84,East,90,0.0,0.0,96,0.00,,---,0.00,VWS V14.01,2014-07-23 11:09:00,
2014-07-23 07:11:00,62.9,61.8,29.83,East,90,0.0,0.0,96,0.00,,---,0.00,VWS V14.01,2014-07-23 11:11:00,
2014-07-23 07:12:00,63.0,61.8,29.83,East,90,0.0,0.0,96,0.00,,---,0.00,VWS V14.01,2014-07-23 11:12:00,
2014-07-23 07:13:00,63.0,61.8,29.83,East,91,0.0,0.0,96,0.00,,---,0.00,VWS V14.01,2014-07-23 11:13:00,
2014-07-23 07:14:00,63.1,61.9,29.83,East,91,0.0,0.0,96,0.00,,---,0.00,VWS V14.01,2014-07-23 11:14:00,
2014-07-23 07:16:00,63.2,62.0,29.83,East,90,0.0,0.0,96,0.00,,---,0.00,VWS V14.01,2014-07-23 11:16:00,
2014-07-23 07:18:00,63.3,62.1,29.83,East,90,0.0,0.0,96,0.00,,---,0.00,VWS V14.01,2014-07-23 11:18:00,
2014-07-23 07:19:00,63.4,62.2,29.83,East,90,0.0,0.0,96,0.00,,---,0.00,VWS V14.01,2014-07-23 11:19:00,
2014-07-23 07:21:00,63.5,62.3,29.84,East,90,0.0,0.0,96,0.00,,---,0.00,VWS V14.01,2014-07-23 11:21:00,
2014-07-23 07:22:00,63.5,62.3,29.84,East,90,0.0,0.0,96,0.00,,---,0.00,VWS V14.01,2014-07-23 11:22:00,
2014-07-23 07:23:00,63.6,62.4,29.83,East,90,0.0,0.0,96,0.00,,---,0.00,VWS V14.01,2014-07-23 11:23:00,
2014-07-23 07:24:00,63.7,62.5,29.83,East,90,0.0,0.0,96,0.00,,---,0.00,VWS V14.01,2014-07-23 11:24:00,
2014-07-23 07:26:00,63.8,62.6,29.83,East,90,0.0,0.0,96,0.00,,---,0.00,VWS V14.01,2014-07-23 11:26:00,
2014-07-23 07:27:00,63.8,62.6,29.83,East,90,0.0,0.0,96,0.00,,---,0.00,VWS V14.01,2014-07-23 11:27:00,
2014-07-23 07:28:00,63.9,62.7,29.83,East,90,0.0,0.0,96,0.00,,---,0.00,VWS V14.01,2014-07-23 11:28:00,
2014-07-23 07:29:00,63.9,62.7,29.83,East,91,0.0,0.0,96,0.00,,---,0.00,VWS V14.01,2014-07-23 11:29:00,
2014-07-23 07:30:00,64.0,62.8,29.83,East,91,0.0,0.0,96,0.00,,---,0.00,VWS V14.01,2014-07-23 11:30:00,
2014-07-23 07:31:00,64.2,63.0,29.83,East,90,0.0,0.0,96,0.00,,---,0.00,VWS V14.01,2014-07-23 11:31:00,
2014-07-23 07:32:00,64.2,63.0,29.83,East,91,0.0,0.0,96,0.00,,---,0.00,VWS V14.01,2014-07-23 11:32:00,
2014-07-23 07:33:00,64.3,63.1,29.83,East,91,0.0,0.0,96,0.00,,---,0.00,VWS V14.01,2014-07-23 11:33:00,
2014-07-23 07:34:00,64.5,63.3,29.83,East,90,0.0,0.0,96,0.00,,---,0.00,VWS V14.01,2014-07-23 11:34:00,
2014-07-23 07:35:00,64.5,63.3,29.83,East,90,0.0,0.0,96,0.00,,---,0.00,VWS V14.01,2014-07-23 11:35:00,
2014-07-23 07:36:00,64.6,63.4,29.83,East,90,0.0,0.0,96,0.00,,---,0.00,VWS V14.01,2014-07-23 11:36:00,
2014-07-23 07:37:00,64.7,63.5,29.83,East,90,0.0,0.0,96,0.00,,---,0.00,VWS V14.01,2014-07-23 11:37:00,
2014-07-23 07:39:00,64.9,63.7,29.83,East,90,0.0,0.0,96,0.00,,---,0.00,VWS V14.01,2014-07-23 11:39:00,
2014-07-23 07:40:00,64.9,63.7,29.83,East,90,0.0,0.0,96,0.00,,---,0.00,VWS V14.01,2014-07-23 11:40:00,
2014-07-23 07:41:00,65.0,63.8,29.83,East,90,0.0,0.0,96,0.00,,---,0.00,VWS V14.01,2014-07-23 11:41:00,
2014-07-23 07:42:00,65.1,63.9,29.83,East,90,0.0,0.0,96,0.00,,---,0.00,VWS V14.01,2014-07-23 11:42:00,
2014-07-23 07:44:00,65.3,64.1,29.83,East,91,0.0,0.0,96,0.00,,---,0.00,VWS V14.01,2014-07-23 11:44:00,
2014-07-23 07:45:00,65.3,64.1,29.83,East,91,0.0,0.0,96,0.00,,---,0.00,VWS V14.01,2014-07-23 11:45:00,
2014-07-23 07:46:00,65.4,64.2,29.83,East,90,0.0,0.0,96,0.00,,---,0.00,VWS V14.01,2014-07-23 11:46:00,
2014-07-23 07:47:00,65.6,64.4,29.83,East,91,0.0,0.0,96,0.00,,---,0.00,VWS V14.01,2014-07-23 11:47:00,
2014-07-23 07:49:00,65.7,64.5,29.83,East,90,0.0,0.0,96,0.00,,---,0.00,VWS V14.01,2014-07-23 11:49:00,
2014-07-23 07:50:00,65.8,64.6,29.83,East,90,0.0,0.0,96,0.00,,---,0.00,VWS V14.01,2014-07-23 11:50:00,
2014-07-23 07:51:00,65.9,64.7,29.83,East,91,0.0,0.0,96,0.00,,---,0.00,VWS V14.01,2014-07-23 11:51:00,
2014-07-23 07:52:00,66.0,64.8,29.83,East,91,0.0,0.0,96,0.00,,---,0.00,VWS V14.01,2014-07-23 11:52:00,
2014-07-23 07:54:00,66.1,64.9,29.82,East,90,0.0,0.0,96,0.00,,---,0.00,VWS V14.01,2014-07-23 11:54:00,
2014-07-23 07:55:00,66.2,65.0,29.83,East,90,0.0,0.0,96,0.00,,---,0.00,VWS V14.01,2014-07-23 11:55:00,
2014-07-23 07:56:00,66.3,65.1,29.83,East,90,0.0,0.0,96,0.00,,---,0.00,VWS V14.01,2014-07-23 11:56:00,
2014-07-23 07:57:00,66.4,65.2,29.83,East,91,0.0,0.0,96,0.00,,---,0.00,VWS V14.01,2014-07-23 11:57:00,
2014-07-23 07:59:00,66.5,65.3,29.83,East,91,0.0,0.0,96,0.00,,---,0.00,VWS V14.01,2014-07-23 11:59:00,
2014-07-23 08:00:00,66.6,65.4,29.83,East,90,0.0,0.0,96,0.00,,---,0.00,VWS V14.01,2014-07-23 12:00:00,
2014-07-23 08:01:00,66.7,65.5,29.83,East,89,0.0,0.0,96,0.00,,---,0.00,VWS V14.01,2014-07-23 12:01:00,
2014-07-23 08:02:00,66.8,65.6,29.82,East,89,0.0,0.0,96,0.00,,---,0.00,VWS V14.01,2014-07-23 12:02:00,
2014-07-23 08:03:00,66.8,65.6,29.82,East,89,0.0,0.0,96,0.00,,---,0.00,VWS V14.01,2014-07-23 12:03:00,
2014-07-23 08:05:00,67.0,65.8,29.83,East,89,0.0,0.0,96,0.00,,---,0.00,VWS V14.01,2014-07-23 12:05:00,
2014-07-23 08:06:00,67.1,65.9,29.82,East,89,0.0,0.0,96,0.00,,---,0.00,VWS V14.01,2014-07-23 12:06:00,
2014-07-23 08:07:00,67.2,66.0,29.82,East,89,0.0,0.0,96,0.00,,---,0.00,VWS V14.01,2014-07-23 12:07:00,
2014-07-23 08:08:00,67.3,66.1,29.82,East,89,0.0,0.0,96,0.00,,---,0.00,VWS V14.01,2014-07-23 12:08:00,
2014-07-23 08:10:00,67.5,66.3,29.82,East,89,0.0,0.0,96,0.00,,---,0.00,VWS V14.01,2014-07-23 12:10:00,
2014-07-23 08:11:00,67.5,66.3,29.82,East,89,0.0,0.0,96,0.00,,---,0.00,VWS V14.01,2014-07-23 12:11:00,
2014-07-23 08:12:00,67.4,66.2,29.82,East,89,0.0,0.0,96,0.00,,---,0.00,VWS V14.01,2014-07-23 12:12:00,
2014-07-23 08:13:00,67.5,66.3,29.82,East,89,0.0,0.0,96,0.00,,---,0.00,VWS V14.01,2014-07-23 12:13:00,
2014-07-23 08:15:00,67.6,66.4,29.82,East,89,0.0,0.0,96,0.00,,---,0.00,VWS V14.01,2014-07-23 12:15:00,
2014-07-23 08:16:00,67.7,66.5,29.82,East,89,0.0,0.0,96,0.00,,---,0.00,VWS V14.01,2014-07-23 12:16:00,
2014-07-23 08:17:00,67.7,66.5,29.82,East,89,0.0,0.0,96,0.00,,---,0.00,VWS V14.01,2014-07-23 12:17:00,
2014-07-23 08:18:00,67.8,66.6,29.82,East,89,0.0,0.0,96,0.00,,---,0.00,VWS V14.01,2014-07-23 12:18:00,
2014-07-23 08:20:00,68.1,66.9,29.82,East,89,0.0,0.0,96,0.00,,---,0.00,VWS V14.01,2014-07-23 12:20:00,
2014-07-23 08:22:00,68.2,67.0,29.82,East,89,0.0,0.0,96,0.00,,---,0.00,VWS V14.01,2014-07-23 12:22:00,
2014-07-23 08:23:00,68.2,67.0,29.82,East,89,0.0,0.0,96,0.00,,---,0.00,VWS V14.01,2014-07-23 12:23:00,
2014-07-23 08:25:00,68.3,67.1,29.82,East,89,0.0,0.0,96,0.00,,---,0.00,VWS V14.01,2014-07-23 12:25:00,
2014-07-23 08:27:00,68.5,67.3,29.82,East,90,0.0,0.0,96,0.00,,---,0.00,VWS V14.01,2014-07-23 12:27:00,
2014-07-23 08:28:00,68.6,67.4,29.82,East,90,0.0,0.0,96,0.00,,---,0.00,VWS V14.01,2014-07-23 12:28:00,
2014-07-23 08:29:00,68.7,67.5,29.82,East,91,0.0,0.0,96,0.00,,---,0.00,VWS V14.01,2014-07-23 12:29:00,
2014-07-23 08:30:00,68.8,67.6,29.82,East,92,0.0,0.0,96,0.00,,---,0.00,VWS V14.01,2014-07-23 12:30:00,
2014-07-23 08:32:00,69.0,67.8,29.82,East,92,0.0,0.0,96,0.00,,---,0.00,VWS V14.01,2014-07-23 12:32:00,
2014-07-23 08:33:00,69.0,67.8,29.82,East,91,0.0,0.0,96,0.00,,---,0.00,VWS V14.01,2014-07-23 12:33:00,
2014-07-23 08:34:00,69.2,68.0,29.82,East,92,0.0,0.0,96,0.00,,---,0.00,VWS V14.01,2014-07-23 12:34:00,
2014-07-23 08:35:00,69.3,68.1,29.82,East,92,0.0,0.0,96,0.00,,---,0.00,VWS V14.01,2014-07-23 12:35:00,
2014-07-23 08:36:00,69.3,68.1,29.82,East,92,0.0,0.0,96,0.00,,---,0.00,VWS V14.01,2014-07-23 12:36:00,
2014-07-23 08:38:00,69.4,68.2,29.82,East,94,0.0,0.0,96,0.00,,---,0.00,VWS V14.01,2014-07-23 12:38:00,
2014-07-23 08:39:00,69.5,68.3,29.82,East,99,0.0,0.0,96,0.00,,---,0.00,VWS V14.01,2014-07-23 12:39:00,
2014-07-23 08:40:00,69.6,68.4,29.82,ESE,110,0.0,0.0,96,0.00,,---,0.00,VWS V14.01,2014-07-23 12:40:00,
2014-07-23 08:41:00,69.6,68.4,29.82,ESE,110,0.0,0.0,96,0.00,,---,0.00,VWS V14.01,2014-07-23 12:41:00,
2014-07-23 08:43:00,69.9,68.7,29.82,ESE,110,0.0,0.0,96,0.00,,---,0.00,VWS V14.01,2014-07-23 12:43:00,
2014-07-23 08:44:00,70.0,68.8,29.82,ESE,110,0.0,0.0,96,0.00,,---,0.00,VWS V14.01,2014-07-23 12:44:00,
2014-07-23 08:45:00,70.1,68.6,29.81,ESE,110,0.0,0.0,95,0.00,,---,0.00,VWS V14.01,2014-07-23 12:45:00,
2014-07-23 08:46:00,70.1,68.6,29.81,ESE,110,0.0,0.0,95,0.00,,---,0.00,VWS V14.01,2014-07-23 12:46:00,
2014-07-23 08:48:00,70.2,68.7,29.81,ESE,110,0.0,0.0,95,0.00,,---,0.00,VWS V14.01,2014-07-23 12:48:00,
2014-07-23 08:49:00,70.3,68.8,29.81,ESE,110,0.0,0.0,95,0.00,,---,0.00,VWS V14.01,2014-07-23 12:49:00,
2014-07-23 08:50:00,70.4,68.9,29.81,ESE,110,0.0,0.0,95,0.00,,---,0.00,VWS V14.01,2014-07-23 12:50:00,
2014-07-23 08:51:00,70.5,69.0,29.81,ESE,110,0.0,0.0,95,0.00,,---,0.00,VWS V14.01,2014-07-23 12:51:00,
2014-07-23 08:53:00,70.7,69.2,29.81,ESE,110,0.0,0.0,95,0.00,,---,0.00,VWS V14.01,2014-07-23 12:53:00,
2014-07-23 08:54:00,70.8,69.3,29.81,ESE,110,0.0,0.0,95,0.00,,---,0.00,VWS V14.01,2014-07-23 12:54:00,
2014-07-23 08:55:00,70.9,69.4,29.82,SE,142,0.0,0.0,95,0.00,,---,0.00,VWS V14.01,2014-07-23 12:55:00,
2014-07-23 08:56:00,71.0,69.5,29.82,SE,143,0.0,1.0,95,0.00,,---,0.00,VWS V14.01,2014-07-23 12:56:00,
2014-07-23 08:58:00,71.3,69.8,29.81,South,170,0.0,1.0,95,0.00,,---,0.00,VWS V14.01,2014-07-23 12:58:00,
2014-07-23 08:59:00,71.4,69.9,29.81,South,170,0.0,1.0,95,0.00,,---,0.00,VWS V14.01,2014-07-23 12:59:00,
2014-07-23 09:00:00,71.6,70.1,29.81,South,170,0.0,1.0,95,0.00,,---,0.00,VWS V14.01,2014-07-23 13:00:00,
2014-07-23 09:01:00,71.7,70.2,29.81,South,170,0.0,1.0,95,0.00,,---,0.00,VWS V14.01,2014-07-23 13:01:00,
2014-07-23 09:03:00,72.0,70.2,29.81,South,170,0.0,0.0,94,0.00,,---,0.00,VWS V14.01,2014-07-23 13:03:00,
2014-07-23 09:04:00,72.1,70.3,29.81,South,170,0.0,0.0,94,0.00,,---,0.00,VWS V14.01,2014-07-23 13:04:00,
2014-07-23 09:06:00,72.3,70.5,29.81,South,169,0.0,0.0,94,0.00,,---,0.00,VWS V14.01,2014-07-23 13:06:00,
2014-07-23 09:08:00,72.5,70.4,29.81,South,169,0.0,0.0,93,0.00,,---,0.00,VWS V14.01,2014-07-23 13:08:00,
2014-07-23 09:09:00,72.5,70.4,29.81,South,169,0.0,0.0,93,0.00,,---,0.00,VWS V14.01,2014-07-23 13:09:00,
2014-07-23 09:10:00,72.5,70.4,29.81,South,169,0.0,0.0,93,0.00,,---,0.00,VWS V14.01,2014-07-23 13:10:00,
2014-07-23 09:11:00,72.5,70.1,29.81,South,169,0.0,0.0,92,0.00,,---,0.00,VWS V14.01,2014-07-23 13:11:00,
2014-07-23 09:14:00,72.5,70.1,29.81,South,169,0.0,0.0,92,0.00,,---,0.00,VWS V14.01,2014-07-23 13:14:00,
2014-07-23 09:15:00,72.5,70.4,29.81,South,169,0.0,0.0,93,0.00,,---,0.00,VWS V14.01,2014-07-23 13:15:00,
2014-07-23 09:16:00,72.7,70.6,29.81,South,169,0.0,0.0,93,0.00,,---,0.00,VWS V14.01,2014-07-23 13:16:00,
2014-07-23 09:19:00,73.2,71.1,29.80,South,186,0.0,0.0,93,0.00,,---,0.00,VWS V14.01,2014-07-23 13:19:00,
2014-07-23 09:20:00,73.4,71.3,29.80,South,186,0.0,0.0,93,0.00,,---,0.00,VWS V14.01,2014-07-23 13:20:00,
2014-07-23 09:21:00,73.6,71.1,29.80,South,186,0.0,0.0,92,0.00,,---,0.00,VWS V14.01,2014-07-23 13:21:00,
2014-07-23 09:22:00,73.7,71.2,29.80,South,186,0.0,0.0,92,0.00,,---,0.00,VWS V14.01,2014-07-23 13:22:00,
2014-07-23 09:24:00,74.1,71.3,29.80,NE,49,0.0,0.0,91,0.00,,---,0.00,VWS V14.01,2014-07-23 13:24:00,
2014-07-23 09:25:00,74.2,71.4,29.80,NE,50,0.0,0.0,91,0.00,,---,0.00,VWS V14.01,2014-07-23 13:25:00,
2014-07-23 09:26:00,74.4,71.6,29.80,NE,50,0.0,0.0,91,0.00,,---,0.00,VWS V14.01,2014-07-23 13:26:00,
2014-07-23 09:27:00,74.5,71.7,29.80,NE,50,0.0,0.0,91,0.00,,---,0.00,VWS V14.01,2014-07-23 13:27:00,
2014-07-23 09:29:00,74.7,71.6,29.80,NE,51,0.0,0.0,90,0.00,,---,0.00,VWS V14.01,2014-07-23 13:29:00,
2014-07-23 09:30:00,74.8,71.7,29.80,NE,51,0.0,0.0,90,0.00,,---,0.00,VWS V14.01,2014-07-23 13:30:00,
2014-07-23 09:31:00,75.0,71.5,29.80,NE,51,0.0,0.0,89,0.00,,---,0.00,VWS V14.01,2014-07-23 13:31:00,
2014-07-23 09:32:00,75.0,71.5,29.80,NE,51,0.0,0.0,89,0.00,,---,0.00,VWS V14.01,2014-07-23 13:32:00,
2014-07-23 09:33:00,75.2,71.7,29.79,NE,53,0.0,0.0,89,0.00,,---,0.00,VWS V14.01,2014-07-23 13:33:00,
2014-07-23 09:34:00,75.4,71.6,29.79,SSW,203,0.0,0.0,88,0.00,,---,0.00,VWS V14.01,2014-07-23 13:34:00,
2014-07-23 09:35:00,75.6,71.5,29.79,SSW,203,0.0,0.0,87,0.00,,---,0.00,VWS V14.01,2014-07-23 13:35:00,
2014-07-23 09:36:00,75.8,71.7,29.79,SSW,212,0.0,0.0,87,0.00,,---,0.00,VWS V14.01,2014-07-23 13:36:00,
2014-07-23 09:37:00,75.8,71.7,29.79,SSW,212,0.0,0.0,87,0.00,,---,0.00,VWS V14.01,2014-07-23 13:37:00,
2014-07-23 09:38:00,76.0,71.5,29.79,SSW,212,0.0,0.0,86,0.00,,---,0.00,VWS V14.01,2014-07-23 13:38:00,
2014-07-23 09:40:00,76.2,71.7,29.79,SSW,193,0.0,0.0,86,0.00,,---,0.00,VWS V14.01,2014-07-23 13:40:00,
2014-07-23 09:42:00,76.4,71.9,29.79,SSW,193,0.0,0.0,86,0.00,,---,0.00,VWS V14.01,2014-07-23 13:42:00,
2014-07-23 09:43:00,76.6,71.8,29.79,ENE,67,0.0,2.0,85,0.00,,---,0.00,VWS V14.01,2014-07-23 13:43:00,
2014-07-23 09:45:00,76.8,71.9,29.79,ENE,67,0.0,2.0,85,0.00,,---,0.00,VWS V14.01,2014-07-23 13:45:00,
2014-07-23 09:46:00,76.9,72.1,29.79,ENE,67,1.0,2.0,85,0.00,,---,0.00,VWS V14.01,2014-07-23 13:46:00,
2014-07-23 09:47:00,77.0,71.8,29.79,NNE,30,0.0,3.0,84,0.00,,---,0.00,VWS V14.01,2014-07-23 13:47:00,
2014-07-23 09:48:00,77.2,72.3,29.78,NNE,30,0.0,3.0,85,0.00,,---,0.00,VWS V14.01,2014-07-23 13:48:00,
2014-07-23 09:50:00,77.4,72.5,29.78,NNE,30,0.0,3.0,85,0.00,,---,0.00,VWS V14.01,2014-07-23 13:50:00,
2014-07-23 09:51:00,77.4,72.2,29.78,NNE,30,1.0,3.0,84,0.00,,---,0.00,VWS V14.01,2014-07-23 13:51:00,
2014-07-23 09:52:00,77.5,72.3,29.78,WNW,290,2.0,3.0,84,0.00,,---,0.00,VWS V14.01,2014-07-23 13:52:00,
2014-07-23 09:53:00,77.6,72.0,29.78,East,94,0.0,3.0,83,0.00,,---,0.00,VWS V14.01,2014-07-23 13:53:00,
2014-07-23 09:55:00,77.8,71.9,29.78,ENE,65,0.0,3.0,82,0.00,,---,0.00,VWS V14.01,2014-07-23 13:55:00,
2014-07-23 09:56:00,77.9,72.3,29.78,ENE,65,0.0,3.0,83,0.00,,---,0.00,VWS V14.01,2014-07-23 13:56:00,
2014-07-23 09:57:00,78.0,72.4,29.78,ENE,65,0.0,3.0,83,0.00,,---,0.00,VWS V14.01,2014-07-23 13:57:00,
2014-07-23 09:58:00,78.1,72.5,29.78,NNE,15,1.0,4.0,83,0.00,,---,0.00,VWS V14.01,2014-07-23 13:58:00,
2014-07-23 10:00:00,78.3,72.4,29.78,West,269,0.0,4.0,82,0.00,,---,0.00,VWS V14.01,2014-07-23 14:00:00,
2014-07-23 10:01:00,78.4,72.4,29.78,West,269,0.0,4.0,82,0.00,,---,0.00,VWS V14.01,2014-07-23 14:01:00,
2014-07-23 10:02:00,78.5,72.2,29.78,NE,47,0.0,4.0,81,0.00,,---,0.00,VWS V14.01,2014-07-23 14:02:00,
2014-07-23 10:03:00,78.6,72.3,29.78,NE,47,0.0,4.0,81,0.00,,---,0.00,VWS V14.01,2014-07-23 14:03:00,
2014-07-23 10:04:00,78.7,72.4,29.78,NE,47,0.0,0.0,81,0.00,,---,0.00,VWS V14.01,2014-07-23 14:04:00,
2014-07-23 10:05:00,78.9,72.6,29.78,East,98,0.0,2.0,81,0.00,,---,0.00,VWS V14.01,2014-07-23 14:05:00,
2014-07-23 10:06:00,79.0,73.0,29.78,East,97,0.0,2.0,82,0.00,,---,0.00,VWS V14.01,2014-07-23 14:06:00,
2014-07-23 10:07:00,79.1,73.1,29.78,East,97,0.0,2.0,82,0.00,,---,0.00,VWS V14.01,2014-07-23 14:07:00,
2014-07-23 10:08:00,79.1,73.1,29.78,East,98,0.0,2.0,82,0.00,,---,0.00,VWS V14.01,2014-07-23 14:08:00,
2014-07-23 10:10:00,79.2,72.9,29.78,South,178,0.0,3.0,81,0.00,,---,0.00,VWS V14.01,2014-07-23 14:10:00,
2014-07-23 10:11:00,79.3,73.0,29.78,South,178,0.0,3.0,81,0.00,,---,0.00,VWS V14.01,2014-07-23 14:11:00,
2014-07-23 10:12:00,79.3,72.2,29.78,West,269,1.0,4.0,79,0.00,,---,0.00,VWS V14.01,2014-07-23 14:12:00,
2014-07-23 10:13:00,79.4,72.3,29.78,West,269,0.0,4.0,79,0.00,,---,0.00,VWS V14.01,2014-07-23 14:13:00,
2014-07-23 10:16:00,79.7,72.2,29.78,NE,37,0.0,4.0,78,0.00,,---,0.00,VWS V14.01,2014-07-23 14:16:00,
2014-07-23 10:17:00,79.9,72.8,29.78,NE,37,1.0,4.0,79,0.00,,---,0.00,VWS V14.01,2014-07-23 14:17:00,
2014-07-23 10:18:00,80.2,73.1,29.78,NE,37,0.0,4.0,79,0.00,,---,0.00,VWS V14.01,2014-07-23 14:18:00,
2014-07-23 10:22:00,80.7,71.7,29.77,East,82,2.0,4.0,74,0.00,,---,0.00,VWS V14.01,2014-07-23 14:22:00,
2014-07-23 10:23:00,80.8,71.7,29.77,ESE,104,3.0,4.0,74,0.00,,---,0.00,VWS V14.01,2014-07-23 14:23:00,
2014-07-23 10:27:00,81.3,71.4,29.77,East,94,4.0,5.0,72,0.00,,---,0.00,VWS V14.01,2014-07-23 14:27:00,
2014-07-23 10:28:00,81.3,70.6,29.77,East,94,4.0,5.0,70,0.00,,---,0.00,VWS V14.01,2014-07-23 14:28:00,
2014-07-23 10:32:00,81.5,70.4,29.77,ESE,104,2.0,6.0,69,0.00,,---,0.00,VWS V14.01,2014-07-23 14:32:00,
2014-07-23 10:33:00,81.6,70.9,29.77,ESE,102,6.0,6.0,70,0.00,,---,0.00,VWS V14.01,2014-07-23 14:33:00,
2014-07-23 10:37:00,81.8,71.1,29.77,East,101,1.0,8.0,70,0.00,,---,0.00,VWS V14.01,2014-07-23 14:37:00,
2014-07-23 10:38:00,81.9,71.2,29.77,East,101,1.0,8.0,70,0.00,,---,0.00,VWS V14.01,2014-07-23 14:38:00,
2014-07-23 10:42:00,82.4,70.8,29.77,ENE,75,5.0,8.0,68,0.00,,---,0.00,VWS V14.01,2014-07-23 14:42:00,
2014-07-23 10:43:00,82.4,70.8,29.77,East,88,4.0,8.0,68,0.00,,---,0.00,VWS V14.01,2014-07-23 14:43:00,
2014-07-23 10:47:00,82.4,70.8,29.77,ESE,105,4.0,8.0,68,0.00,,---,0.00,VWS V14.01,2014-07-23 14:47:00,
2014-07-23 10:48:00,82.4,70.8,29.77,ESE,103,4.0,8.0,68,0.00,,---,0.00,VWS V14.01,2014-07-23 14:48:00,
2014-07-23 10:52:00,82.9,71.3,29.77,ESE,104,1.0,8.0,68,0.00,,---,0.00,VWS V14.01,2014-07-23 14:52:00,
2014-07-23 10:53:00,82.9,71.3,29.77,ESE,104,0.0,8.0,68,0.00,,---,0.00,VWS V14.01,2014-07-23 14:53:00,
2014-07-23 10:57:00,83.7,72.0,29.76,ENE,69,0.0,8.0,68,0.00,,---,0.00,VWS V14.01,2014-07-23 14:57:00,
2014-07-23 10:58:00,83.7,72.0,29.76,ENE,70,0.0,8.0,68,0.00,,---,0.00,VWS V14.01,2014-07-23 14:58:00,
2014-07-23 10:59:00,83.8,71.7,29.76,East,82,2.0,8.0,67,0.00,,---,0.00,VWS V14.01,2014-07-23 14:59:00,
2014-07-23 11:00:00,84.0,71.9,29.76,East,79,2.0,8.0,67,0.00,,---,0.00,VWS V14.01,2014-07-23 15:00:00,
2014-07-23 11:03:00,84.1,70.2,29.76,ESE,117,3.0,8.0,63,0.00,,---,0.00,VWS V14.01,2014-07-23 15:03:00,
2014-07-23 11:04:00,84.0,70.5,29.76,ESE,120,5.0,7.0,64,0.00,,---,0.00,VWS V14.01,2014-07-23 15:04:00,
2014-07-23 11:05:00,84.0,70.5,29.76,ENE,71,1.0,7.0,64,0.00,,---,0.00,VWS V14.01,2014-07-23 15:05:00,
2014-07-23 11:08:00,84.1,70.6,29.76,ESE,108,2.0,7.0,64,0.00,,---,0.00,VWS V14.01,2014-07-23 15:08:00,
2014-07-23 11:09:00,84.1,70.6,29.76,East,99,2.0,7.0,64,0.00,,---,0.00,VWS V14.01,2014-07-23 15:09:00,
2014-07-23 11:10:00,84.1,70.2,29.76,East,80,2.0,7.0,63,0.00,,---,0.00,VWS V14.01,2014-07-23 15:10:00,
2014-07-23 11:13:00,84.3,71.3,29.76,ENE,72,0.0,7.0,65,0.00,,---,0.00,VWS V14.01,2014-07-23 15:13:00,
2014-07-23 11:14:00,84.3,70.8,29.75,ENE,68,2.0,7.0,64,0.00,,---,0.00,VWS V14.01,2014-07-23 15:14:00,
2014-07-23 11:16:00,84.4,71.4,29.75,East,81,4.0,7.0,65,0.00,,---,0.00,VWS V14.01,2014-07-23 15:16:00,
2014-07-23 11:18:00,84.3,70.3,29.75,ENE,71,6.0,7.0,63,0.00,,---,0.00,VWS V14.01,2014-07-23 15:18:00,
2014-07-23 11:19:00,84.2,70.2,29.75,East,88,6.0,9.0,63,0.00,,---,0.00,VWS V14.01,2014-07-23 15:19:00,
2014-07-23 11:20:00,84.2,69.8,29.75,ESE,107,5.0,9.0,62,0.00,,---,0.00,VWS V14.01,2014-07-23 15:20:00,
2014-07-23 11:21:00,84.1,70.2,29.75,ENE,72,5.0,9.0,63,0.00,,---,0.00,VWS V14.01,2014-07-23 15:21:00,
2014-07-23 11:23:00,84.1,70.6,29.75,ESE,111,2.0,9.0,64,0.00,,---,0.00,VWS V14.01,2014-07-23 15:23:00,
2014-07-23 11:24:00,84.1,70.2,29.75,ESE,110,3.0,9.0,63,0.00,,---,0.00,VWS V14.01,2014-07-23 15:24:00,
2014-07-23 11:25:00,84.1,69.7,29.75,ENE,65,3.0,9.0,62,0.00,,---,0.00,VWS V14.01,2014-07-23 15:25:00,
2014-07-23 11:28:00,84.4,70.9,29.75,ENE,71,2.0,9.0,64,0.00,,---,0.00,VWS V14.01,2014-07-23 15:28:00,
2014-07-23 11:29:00,84.5,70.1,29.75,ESE,116,5.0,9.0,62,0.00,,---,0.00,VWS V14.01,2014-07-23 15:29:00,
2014-07-23 11:30:00,84.5,70.1,29.75,ESE,113,3.0,9.0,62,0.00,,---,0.00,VWS V14.01,2014-07-23 15:30:00,
2014-07-23 11:33:00,84.4,70.4,29.75,East,89,3.0,9.0,63,0.00,,---,0.00,VWS V14.01,2014-07-23 15:33:00,
2014-07-23 11:34:00,84.5,71.0,29.75,East,99,6.0,6.0,64,0.00,,---,0.00,VWS V14.01,2014-07-23 15:34:00,
2014-07-23 11:35:00,84.6,70.6,29.75,NE,44,1.0,6.0,63,0.00,,---,0.00,VWS V14.01,2014-07-23 15:35:00,
2014-07-23 11:38:00,84.7,69.8,29.75,East,84,2.0,6.0,61,0.00,,---,0.00,VWS V14.01,2014-07-23 15:38:00,
2014-07-23 11:39:00,84.8,70.3,29.75,East,96,2.0,6.0,62,0.00,,---,0.00,VWS V14.01,2014-07-23 15:39:00,
2014-07-23 11:40:00,84.8,70.3,29.75,ESE,106,3.0,6.0,62,0.00,,---,0.00,VWS V14.01,2014-07-23 15:40:00,
2014-07-23 11:43:00,84.8,69.4,29.75,East,91,5.0,6.0,60,0.00,,---,0.00,VWS V14.01,2014-07-23 15:43:00,
2014-07-23 11:44:00,84.8,68.9,29.75,East,99,7.0,7.0,59,0.00,,---,0.00,VWS V14.01,2014-07-23 15:44:00,
2014-07-23 11:45:00,84.8,69.4,29.75,East,94,4.0,7.0,60,0.00,,---,0.00,VWS V14.01,2014-07-23 15:45:00,
2014-07-23 11:46:00,84.7,69.8,29.75,ENE,71,3.0,7.0,61,0.00,,---,0.00,VWS V14.01,2014-07-23 15:46:00,
2014-07-23 11:48:00,84.7,68.8,29.74,East,101,4.0,8.0,59,0.00,,---,0.00,VWS V14.01,2014-07-23 15:48:00,
2014-07-23 11:49:00,84.7,69.3,29.75,East,79,7.0,8.0,60,0.00,,---,0.00,VWS V14.01,2014-07-23 15:49:00,
2014-07-23 11:50:00,84.7,68.8,29.75,ENE,68,3.0,8.0,59,0.00,,---,0.00,VWS V14.01,2014-07-23 15:50:00,
2014-07-23 11:51:00,84.7,69.3,29.74,ESE,107,5.0,8.0,60,0.00,,---,0.00,VWS V14.01,2014-07-23 15:51:00,
2014-07-23 11:53:00,84.8,69.9,29.74,ESE,107,2.0,8.0,61,0.00,,---,0.00,VWS V14.01,2014-07-23 15:53:00,
2014-07-23 11:54:00,84.8,70.8,29.75,SW,222,1.0,8.0,63,0.00,,---,0.00,VWS V14.01,2014-07-23 15:54:00,
2014-07-23 11:55:00,84.9,70.9,29.75,East,84,3.0,8.0,63,0.00,,---,0.00,VWS V14.01,2014-07-23 15:55:00,
2014-07-23 11:56:00,85.1,69.7,29.75,ESE,107,4.0,8.0,60,0.00,,---,0.00,VWS V14.01,2014-07-23 15:56:00,
2014-07-23 11:58:00,85.2,69.8,29.74,ESE,112,2.0,8.0,60,0.00,,---,0.00,VWS V14.01,2014-07-23 15:58:00,
2014-07-23 11:59:00,85.3,70.3,29.74,East,97,0.0,8.0,61,0.00,,---,0.00,VWS V14.01,2014-07-23 15:59:00,
2014-07-23 12:00:00,85.3,69.8,29.74,East,98,0.0,8.0,60,0.00,,---,0.00,VWS V14.01,2014-07-23 16:00:00,
2014-07-23 12:01:00,85.5,70.5,29.74,East,99,4.0,8.0,61,0.00,,---,0.00,VWS V14.01,2014-07-23 16:01:00,
2014-07-23 12:03:00,85.6,70.6,29.74,ESE,103,6.0,6.0,61,0.00,,---,0.00,VWS V14.01,2014-07-23 16:03:00,
2014-07-23 12:04:00,85.6,69.6,29.74,ESE,104,3.0,7.0,59,0.00,,---,0.00,VWS V14.01,2014-07-23 16:04:00,
2014-07-23 12:05:00,85.6,69.6,29.74,ESE,104,2.0,7.0,59,0.00,,---,0.00,VWS V14.01,2014-07-23 16:05:00,
2014-07-23 12:06:00,85.5,69.1,29.74,East,98,6.0,8.0,58,0.00,,---,0.00,VWS V14.01,2014-07-23 16:06:00,
2014-07-23 12:09:00,85.4,69.9,29.74,ENE,70,4.0,8.0,60,0.00,,---,0.00,VWS V14.01,2014-07-23 16:09:00,
2014-07-23 12:10:00,85.5,69.6,29.74,East,89,3.0,8.0,59,0.00,,---,0.00,VWS V14.01,2014-07-23 16:10:00,
2014-07-23 12:12:00,85.4,69.0,29.74,ESE,104,5.0,8.0,58,0.00,,---,0.00,VWS V14.01,2014-07-23 16:12:00,
2014-07-23 12:14:00,85.4,70.4,29.74,ESE,103,6.0,8.0,61,0.00,,---,0.00,VWS V14.01,2014-07-23 16:14:00,
2014-07-23 12:15:00,85.5,70.5,29.74,ESE,110,3.0,8.0,61,0.00,,---,0.00,VWS V14.01,2014-07-23 16:15:00,
2014-07-23 12:17:00,85.8,70.3,29.74,ENE,75,4.0,8.0,60,0.00,,---,0.00,VWS V14.01,2014-07-23 16:17:00,
2014-07-23 12:19:00,85.9,70.4,29.74,East,88,1.0,8.0,60,0.00,,---,0.00,VWS V14.01,2014-07-23 16:19:00,
2014-07-23 12:20:00,86.0,71.0,29.74,East,101,2.0,8.0,61,0.00,,---,0.00,VWS V14.01,2014-07-23 16:20:00,
2014-07-23 12:21:00,86.1,70.6,29.74,East,94,6.0,8.0,60,0.00,,---,0.00,VWS V14.01,2014-07-23 16:21:00,
2014-07-23 12:22:00,86.0,70.0,29.74,ESE,108,7.0,8.0,59,0.00,,---,0.00,VWS V14.01,2014-07-23 16:22:00,
2014-07-23 12:24:00,86.1,70.6,29.74,ENE,57,0.0,8.0,60,0.00,,---,0.00,VWS V14.01,2014-07-23 16:24:00,
2014-07-23 12:25:00,86.1,70.1,29.74,ESE,113,3.0,8.0,59,0.00,,---,0.00,VWS V14.01,2014-07-23 16:25:00,
2014-07-23 12:26:00,86.1,69.6,29.74,ESE,103,6.0,8.0,58,0.00,,---,0.00,VWS V14.01,2014-07-23 16:26:00,
2014-07-23 12:27:00,86.0,69.0,29.74,ESE,113,3.0,9.0,57,0.00,,---,0.00,VWS V14.01,2014-07-23 16:27:00,
2014-07-23 12:29:00,86.0,69.5,29.73,ESE,113,2.0,9.0,58,0.00,,---,0.00,VWS V14.01,2014-07-23 16:29:00,
2014-07-23 12:30:00,86.0,69.5,29.73,ESE,110,6.0,9.0,58,0.00,,---,0.00,VWS V14.01,2014-07-23 16:30:00,
2014-07-23 12:31:00,85.9,69.4,29.74,ESE,116,3.0,10.0,58,0.00,,---,0.00,VWS V14.01,2014-07-23 16:31:00,
2014-07-23 12:32:00,85.8,69.3,29.74,East,98,3.0,10.0,58,0.00,,---,0.00,VWS V14.01,2014-07-23 16:32:00,
2014-07-23 12:34:00,85.7,69.7,29.74,ESE,108,6.0,7.0,59,0.00,,---,0.00,VWS V14.01,2014-07-23 16:34:00,
2014-07-23 12:35:00,85.6,69.1,29.74,East,101,2.0,7.0,58,0.00,,---,0.00,VWS V14.01,2014-07-23 16:35:00,
2014-07-23 12:36:00,85.6,69.1,29.74,ESE,106,2.0,7.0,58,0.00,,---,0.00,VWS V14.01,2014-07-23 16:36:00,
2014-07-23 12:38:00,85.5,69.6,29.73,ESE,106,0.0,7.0,59,0.00,,---,0.00,VWS V14.01,2014-07-23 16:38:00,
2014-07-23 12:39:00,85.6,69.6,29.73,ESE,105,1.0,7.0,59,0.00,,---,0.00,VWS V14.01,2014-07-23 16:39:00,
2014-07-23 12:40:00,85.6,69.6,29.73,ESE,115,2.0,7.0,59,0.00,,---,0.00,VWS V14.01,2014-07-23 16:40:00,
2014-07-23 12:41:00,85.5,69.6,29.73,ESE,123,2.0,7.0,59,0.00,,---,0.00,VWS V14.01,2014-07-23 16:41:00,
2014-07-23 12:43:00,85.6,69.1,29.73,East,91,6.0,7.0,58,0.00,,---,0.00,VWS V14.01,2014-07-23 16:43:00,
2014-07-23 12:44:00,85.6,69.6,29.73,SE,125,4.0,7.0,59,0.00,,---,0.00,VWS V14.01,2014-07-23 16:44:00,
2014-07-23 12:45:00,85.6,69.6,29.73,ESE,109,5.0,7.0,59,0.00,,---,0.00,VWS V14.01,2014-07-23 16:45:00,
2014-07-23 12:46:00,85.6,68.6,29.73,ENE,68,3.0,7.0,57,0.00,,---,0.00,VWS V14.01,2014-07-23 16:46:00,
2014-07-23 12:48:00,85.7,69.7,29.73,ENE,64,9.0,9.0,59,0.00,,---,0.00,VWS V14.01,2014-07-23 16:48:00,
2014-07-23 12:49:00,85.6,69.1,29.73,ESE,121,4.0,9.0,58,0.00,,---,0.00,VWS V14.01,2014-07-23 16:49:00,
2014-07-23 12:50:00,85.6,69.1,29.73,East,90,3.0,9.0,58,0.00,,---,0.00,VWS V14.01,2014-07-23 16:50:00,
2014-07-23 12:51:00,85.6,69.1,29.73,East,89,3.0,9.0,58,0.00,,---,0.00,VWS V14.01,2014-07-23 16:51:00,
2014-07-23 12:53:00,85.6,69.6,29.73,East,94,2.0,9.0,59,0.00,,---,0.00,VWS V14.01,2014-07-23 16:53:00,
2014-07-23 12:54:00,85.6,69.6,29.72,East,91,1.0,9.0,59,0.00,,---,0.00,VWS V14.01,2014-07-23 16:54:00,
2014-07-23 12:55:00,85.7,70.2,29.72,East,89,0.0,9.0,60,0.00,,---,0.00,VWS V14.01,2014-07-23 16:55:00,
2014-07-23 12:56:00,85.8,70.3,29.72,East,89,0.0,9.0,60,0.00,,---,0.00,VWS V14.01,2014-07-23 16:56:00,
2014-07-23 12:59:00,86.0,69.5,29.72,ESE,110,3.0,9.0,58,0.00,,---,0.00,VWS V14.01,2014-07-23 16:59:00,
2014-07-23 13:00:00,86.0,70.0,29.72,ESE,105,4.0,9.0,59,0.00,,---,0.00,VWS V14.01,2014-07-23 17:00:00,
2014-07-23 13:01:00,85.9,69.9,29.72,ENE,71,4.0,9.0,59,0.00,,---,0.00,VWS V14.01,2014-07-23 17:01:00,
2014-07-23 13:02:00,85.9,69.4,29.72,SE,145,2.0,9.0,58,0.00,,---,0.00,VWS V14.01,2014-07-23 17:02:00,
2014-07-23 13:04:00,85.7,69.2,29.72,West,260,3.0,6.0,58,0.00,,---,0.00,VWS V14.01,2014-07-23 17:04:00,
2014-07-23 13:05:00,85.7,69.2,29.72,WSW,250,4.0,6.0,58,0.00,,---,0.00,VWS V14.01,2014-07-23 17:05:00,
2014-07-23 13:06:00,85.6,69.1,29.72,ESE,117,2.0,6.0,58,0.00,,---,0.00,VWS V14.01,2014-07-23 17:06:00,
2014-07-23 13:07:00,85.5,69.1,29.72,WSW,245,1.0,6.0,58,0.00,,---,0.00,VWS V14.01,2014-07-23 17:07:00,
2014-07-23 13:10:00,85.7,70.7,29.71,WSW,245,0.0,6.0,61,0.00,,---,0.00,VWS V14.01,2014-07-23 17:10:00,
2014-07-23 13:11:00,85.8,72.2,29.71,WSW,245,0.0,6.0,64,0.00,,---,0.00,VWS V14.01,2014-07-23 17:11:00,
2014-07-23 13:12:00,85.8,72.2,29.71,SE,125,1.0,6.0,64,0.00,,---,0.00,VWS V14.01,2014-07-23 17:12:00,
2014-07-23 13:15:00,85.6,71.6,29.71,SSE,162,1.0,6.0,63,0.00,,---,0.00,VWS V14.01,2014-07-23 17:15:00,
2014-07-23 13:16:00,85.5,71.9,29.71,East,101,8.0,8.0,64,0.00,,---,0.00,VWS V14.01,2014-07-23 17:16:00,
2014-07-23 13:17:00,85.5,69.6,29.71,East,96,0.0,8.0,59,0.00,,---,0.00,VWS V14.01,2014-07-23 17:17:00,
2014-07-23 13:20:00,85.6,70.1,29.71,ESE,120,5.0,8.0,60,0.00,,---,0.00,VWS V14.01,2014-07-23 17:20:00,
2014-07-23 13:21:00,85.6,69.6,29.71,East,82,3.0,8.0,59,0.00,,---,0.00,VWS V14.01,2014-07-23 17:21:00,
2014-07-23 13:22:00,85.6,69.1,29.71,SE,127,3.0,8.0,58,0.00,,---,0.00,VWS V14.01,2014-07-23 17:22:00,
2014-07-23 13:25:00,85.6,70.1,29.71,ESE,107,1.0,8.0,60,0.00,,---,0.00,VWS V14.01,2014-07-23 17:25:00,
2014-07-23 13:26:00,85.6,69.6,29.71,SE,128,2.0,8.0,59,0.00,,---,0.00,VWS V14.01,2014-07-23 17:26:00,
2014-07-23 13:27:00,85.6,68.6,29.71,ESE,113,3.0,8.0,57,0.00,,---,0.00,VWS V14.01,2014-07-23 17:27:00,
2014-07-23 13:28:00,85.6,68.6,29.71,ESE,118,2.0,8.0,57,0.00,,---,0.00,VWS V14.01,2014-07-23 17:28:00,
2014-07-23 13:30:00,85.7,70.2,29.71,ENE,64,1.0,8.0,60,0.00,,---,0.00,VWS V14.01,2014-07-23 17:30:00,
2014-07-23 13:31:00,85.7,70.2,29.71,ENE,64,1.0,8.0,60,0.00,,---,0.00,VWS V14.01,2014-07-23 17:31:00,
2014-07-23 13:32:00,85.7,70.2,29.71,SW,228,1.0,8.0,60,0.00,,---,0.00,VWS V14.01,2014-07-23 17:32:00,
2014-07-23 13:33:00,85.8,70.3,29.71,SW,235,3.0,3.0,60,0.00,,---,0.00,VWS V14.01,2014-07-23 17:33:00,
2014-07-23 13:36:00,85.7,70.2,29.71,ESE,105,1.0,3.0,60,0.00,,---,0.00,VWS V14.01,2014-07-23 17:36:00,
2014-07-23 13:37:00,85.7,72.1,29.71,ESE,106,0.0,3.0,64,0.00,,---,0.00,VWS V14.01,2014-07-23 17:37:00,
2014-07-23 13:39:00,85.8,73.1,29.71,ESE,106,0.0,3.0,66,0.00,,---,0.00,VWS V14.01,2014-07-23 17:39:00,
2014-07-23 13:41:00,86.0,73.8,29.71,ESE,106,2.0,3.0,67,0.00,,---,0.00,VWS V14.01,2014-07-23 17:41:00,
2014-07-23 13:42:00,86.0,71.5,29.71,ESE,103,4.0,4.0,62,0.00,,---,0.00,VWS V14.01,2014-07-23 17:42:00,
2014-07-23 13:43:00,86.0,71.5,29.70,ESE,104,3.0,4.0,62,0.00,,---,0.00,VWS V14.01,2014-07-23 17:43:00,
2014-07-23 13:44:00,86.0,69.5,29.70,ESE,115,2.0,7.0,58,0.00,,---,0.00,VWS V14.01,2014-07-23 17:44:00,
2014-07-23 13:46:00,86.1,70.1,29.70,ESE,113,0.0,7.0,59,0.00,,---,0.00,VWS V14.01,2014-07-23 17:46:00,
2014-07-23 13:47:00,86.3,70.3,29.70,ENE,78,2.0,7.0,59,0.00,,---,0.00,VWS V14.01,2014-07-23 17:47:00,
2014-07-23 13:48:00,86.3,70.8,29.70,ENE,78,1.0,7.0,60,0.00,,---,0.00,VWS V14.01,2014-07-23 17:48:00,
2014-07-23 13:49:00,86.5,71.5,29.70,ESE,108,1.0,7.0,61,0.00,,---,0.00,VWS V14.01,2014-07-23 17:49:00,
2014-07-23 13:51:00,86.7,70.7,29.70,SE,124,4.0,7.0,59,0.00,,---,0.00,VWS V14.01,2014-07-23 17:51:00,
2014-07-23 13:53:00,86.8,70.8,29.70,East,82,1.0,7.0,59,0.00,,---,0.00,VWS V14.01,2014-07-23 17:53:00,
2014-07-23 13:54:00,86.8,70.3,29.70,ENE,75,1.0,7.0,58,0.00,,---,0.00,VWS V14.01,2014-07-23 17:54:00,
2014-07-23 13:56:00,86.9,69.8,29.70,East,79,3.0,7.0,57,0.00,,---,0.00,VWS V14.01,2014-07-23 17:56:00,
2014-07-23 13:57:00,86.9,69.8,29.70,ENE,74,4.0,7.0,57,0.00,,---,0.00,VWS V14.01,2014-07-23 17:57:00,
2014-07-23 13:58:00,87.0,69.9,29.70,ENE,71,1.0,7.0,57,0.00,,---,0.00,VWS V14.01,2014-07-23 17:58:00,
2014-07-23 13:59:00,87.2,70.6,29.70,ENE,74,4.0,7.0,58,0.00,,---,0.00,VWS V14.01,2014-07-23 17:59:00,
2014-07-23 14:01:00,87.4,70.8,29.70,ESE,104,4.0,7.0,58,0.00,,---,0.00,VWS V14.01,2014-07-23 18:01:00,
2014-07-23 14:02:00,87.4,69.8,29.70,ESE,104,3.0,7.0,56,0.00,,---,0.00,VWS V14.01,2014-07-23 18:02:00,
2014-07-23 14:03:00,87.4,70.3,29.70,ESE,108,5.0,9.0,57,0.00,,---,0.00,VWS V14.01,2014-07-23 18:03:00,
2014-07-23 14:04:00,87.4,69.8,29.70,ESE,111,3.0,7.0,56,0.00,,---,0.00,VWS V14.01,2014-07-23 18:04:00,
2014-07-23 14:06:00,87.0,69.4,29.70,ENE,62,4.0,8.0,56,0.00,,---,0.00,VWS V14.01,2014-07-23 18:06:00,
2014-07-23 14:07:00,87.0,69.4,29.70,ESE,103,3.0,8.0,56,0.00,,---,0.00,VWS V14.01,2014-07-23 18:07:00,
2014-07-23 14:08:00,86.8,70.3,29.70,East,94,1.0,8.0,58,0.00,,---,0.00,VWS V14.01,2014-07-23 18:08:00,
2014-07-23 14:09:00,86.8,70.8,29.70,East,94,1.0,8.0,59,0.00,,---,0.00,VWS V14.01,2014-07-23 18:09:00,
2014-07-23 14:11:00,87.0,70.4,29.69,NE,50,1.0,8.0,58,0.00,,---,0.00,VWS V14.01,2014-07-23 18:11:00,
2014-07-23 14:12:00,87.1,70.5,29.70,East,96,2.0,8.0,58,0.00,,---,0.00,VWS V14.01,2014-07-23 18:12:00,
2014-07-23 14:13:00,87.2,69.6,29.69,ESE,113,7.0,8.0,56,0.00,,---,0.00,VWS V14.01,2014-07-23 18:13:00,
2014-07-23 14:14:00,87.1,69.5,29.69,East,94,6.0,8.0,56,0.00,,---,0.00,VWS V14.01,2014-07-23 18:14:00,
2014-07-23 14:16:00,87.1,69.5,29.69,ESE,114,4.0,8.0,56,0.00,,---,0.00,VWS V14.01,2014-07-23 18:16:00,
2014-07-23 14:18:00,87.1,69.5,29.70,East,81,4.0,8.0,56,0.00,,---,0.00,VWS V14.01,2014-07-23 18:18:00,
2014-07-23 14:19:00,87.1,70.5,29.69,East,88,1.0,8.0,58,0.00,,---,0.00,VWS V14.01,2014-07-23 18:19:00,
2014-07-23 14:21:00,87.3,70.2,29.69,ESE,103,2.0,8.0,57,0.00,,---,0.00,VWS V14.01,2014-07-23 18:21:00,
2014-07-23 14:23:00,87.5,70.9,29.69,ESE,103,0.0,8.0,58,0.00,,---,0.00,VWS V14.01,2014-07-23 18:23:00,
2014-07-23 14:24:00,87.5,71.9,29.69,East,89,3.0,8.0,60,0.00,,---,0.00,VWS V14.01,2014-07-23 18:24:00,
2014-07-23 14:25:00,87.7,71.1,29.69,ESE,108,2.0,8.0,58,0.00,,---,0.00,VWS V14.01,2014-07-23 18:25:00,
2014-07-23 14:26:00,87.8,72.2,29.69,ENE,77,4.0,8.0,60,0.00,,---,0.00,VWS V14.01,2014-07-23 18:26:00,
2014-07-23 14:28:00,87.6,71.0,29.69,ENE,77,4.0,8.0,58,0.00,,---,0.00,VWS V14.01,2014-07-23 18:28:00,
2014-07-23 14:29:00,87.6,70.5,29.69,East,89,3.0,8.0,57,0.00,,---,0.00,VWS V14.01,2014-07-23 18:29:00,
2014-07-23 14:30:00,87.5,70.9,29.69,ESE,104,3.0,8.0,58,0.00,,---,0.00,VWS V14.01,2014-07-23 18:30:00,
2014-07-23 14:32:00,87.5,70.9,29.69,ESE,112,0.0,8.0,58,0.00,,---,0.00,VWS V14.01,2014-07-23 18:32:00,
2014-07-23 14:33:00,87.6,72.5,29.69,ESE,111,2.0,2.0,61,0.00,,---,0.00,VWS V14.01,2014-07-23 18:33:00,
2014-07-23 14:34:00,87.6,72.0,29.69,ESE,109,1.0,3.0,60,0.00,,---,0.00,VWS V14.01,2014-07-23 18:34:00,
2014-07-23 14:35:00,87.4,71.3,29.69,ESE,107,4.0,6.0,59,0.00,,---,0.00,VWS V14.01,2014-07-23 18:35:00,
2014-07-23 14:37:00,87.2,70.6,29.68,ESE,107,4.0,6.0,58,0.00,,---,0.00,VWS V14.01,2014-07-23 18:37:00,
2014-07-23 14:38:00,87.0,70.4,29.69,East,100,4.0,6.0,58,0.00,,---,0.00,VWS V14.01,2014-07-23 18:38:00,
2014-07-23 14:39:00,86.9,71.8,29.69,ENE,72,2.0,6.0,61,0.00,,---,0.00,VWS V14.01,2014-07-23 18:39:00,
2014-07-23 14:40:00,86.8,71.8,29.68,ESE,119,5.0,6.0,61,0.00,,---,0.00,VWS V14.01,2014-07-23 18:40:00,
2014-07-23 14:42:00,86.7,71.7,29.69,SE,134,7.0,8.0,61,0.00,,---,0.00,VWS V14.01,2014-07-23 18:42:00,
2014-07-23 14:44:00,86.6,71.6,29.68,ENE,71,0.0,8.0,61,0.00,,---,0.00,VWS V14.01,2014-07-23 18:44:00,
2014-07-23 14:46:00,86.8,72.7,29.68,South,183,0.0,8.0,63,0.00,,---,0.00,VWS V14.01,2014-07-23 18:46:00,
2014-07-23 14:47:00,86.8,73.6,29.68,South,183,1.0,8.0,65,0.00,,---,0.00,VWS V14.01,2014-07-23 18:47:00,
2014-07-23 14:49:00,86.6,71.6,29.68,ESE,122,1.0,8.0,61,0.00,,---,0.00,VWS V14.01,2014-07-23 18:49:00,
2014-07-23 14:51:00,86.3,71.8,29.68,East,79,0.0,8.0,62,0.00,,---,0.00,VWS V14.01,2014-07-23 18:51:00,
2014-07-23 14:52:00,86.2,72.1,29.68,East,86,1.0,8.0,63,0.00,,---,0.00,VWS V14.01,2014-07-23 18:52:00,
2014-07-23 14:54:00,86.0,71.0,29.68,East,101,8.0,8.0,61,0.00,,---,0.00,VWS V14.01,2014-07-23 18:54:00,
2014-07-23 14:55:00,85.9,70.4,29.68,East,86,6.0,9.0,60,0.00,,---,0.00,VWS V14.01,2014-07-23 18:55:00,
2014-07-23 14:56:00,85.9,70.9,29.68,ESE,123,1.0,9.0,61,0.00,,---,0.00,VWS V14.01,2014-07-23 18:56:00,
2014-07-23 14:57:00,85.9,71.4,29.68,ESE,123,0.0,9.0,62,0.00,,---,0.00,VWS V14.01,2014-07-23 18:57:00,
2014-07-23 14:59:00,86.0,71.9,29.68,East,81,0.0,9.0,63,0.00,,---,0.00,VWS V14.01,2014-07-23 18:59:00,
2014-07-23 15:00:00,86.0,71.9,29.68,NE,54,2.0,9.0,63,0.00,,---,0.00,VWS V14.01,2014-07-23 19:00:00,
2014-07-23 15:01:00,86.0,71.5,29.68,East,91,1.0,9.0,62,0.00,,---,0.00,VWS V14.01,2014-07-23 19:01:00,
2014-07-23 15:02:00,86.1,71.6,29.68,East,90,0.0,9.0,62,0.00,,---,0.00,VWS V14.01,2014-07-23 19:02:00,
2014-07-23 15:04:00,86.2,72.1,29.67,NE,56,1.0,4.0,63,0.00,,---,0.00,VWS V14.01,2014-07-23 19:04:00,
2014-07-23 15:05:00,86.2,71.7,29.67,East,84,2.0,6.0,62,0.00,,---,0.00,VWS V14.01,2014-07-23 19:05:00,
2014-07-23 15:06:00,86.3,71.8,29.67,East,81,0.0,6.0,62,0.00,,---,0.00,VWS V14.01,2014-07-23 19:06:00,
2014-07-23 15:07:00,86.3,72.2,29.67,ESE,115,3.0,6.0,63,0.00,,---,0.00,VWS V14.01,2014-07-23 19:07:00,
2014-07-23 15:09:00,86.4,71.4,29.67,East,98,4.0,6.0,61,0.00,,---,0.00,VWS V14.01,2014-07-23 19:09:00,
2014-07-23 15:10:00,86.4,71.4,29.67,ENE,74,3.0,6.0,61,0.00,,---,0.00,VWS V14.01,2014-07-23 19:10:00,
2014-07-23 15:11:00,86.4,71.8,29.68,ESE,120,1.0,6.0,62,0.00,,---,0.00,VWS V14.01,2014-07-23 19:11:00,
2014-07-23 15:12:00,86.4,72.8,29.67,East,89,2.0,6.0,64,0.00,,---,0.00,VWS V14.01,2014-07-23 19:12:00,
2014-07-23 15:14:00,86.4,72.8,29.68,ESE,104,4.0,6.0,64,0.00,,---,0.00,VWS V14.01,2014-07-23 19:14:00,
2014-07-23 15:15:00,86.4,71.4,29.67,ESE,104,1.0,6.0,61,0.00,,---,0.00,VWS V14.01,2014-07-23 19:15:00,
2014-07-23 15:17:00,86.4,72.3,29.68,East,79,2.0,6.0,63,0.00,,---,0.00,VWS V14.01,2014-07-23 19:17:00,
2014-07-23 15:18:00,86.5,72.4,29.67,ESE,109,1.0,6.0,63,0.00,,---,0.00,VWS V14.01,2014-07-23 19:18:00,
2014-07-23 15:19:00,86.5,71.9,29.67,East,99,4.0,6.0,62,0.00,,---,0.00,VWS V14.01,2014-07-23 19:19:00,
2014-07-23 15:20:00,86.5,72.9,29.67,East,98,1.0,6.0,64,0.00,,---,0.00,VWS V14.01,2014-07-23 19:20:00,
2014-07-23 15:23:00,86.6,72.5,29.68,East,91,3.0,6.0,63,0.00,,---,0.00,VWS V14.01,2014-07-23 19:23:00,
2014-07-23 15:24:00,86.5,71.0,29.67,East,94,2.0,9.0,60,0.00,,---,0.00,VWS V14.01,2014-07-23 19:24:00,
2014-07-23 15:25:00,86.6,72.0,29.67,East,82,3.0,9.0,62,0.00,,---,0.00,VWS V14.01,2014-07-23 19:25:00,
2014-07-23 15:26:00,86.6,72.0,29.67,East,93,5.0,9.0,62,0.00,,---,0.00,VWS V14.01,2014-07-23 19:26:00,
2014-07-23 15:28:00,86.5,71.9,29.68,ESE,102,8.0,9.0,62,0.00,,---,0.00,VWS V14.01,2014-07-23 19:28:00,
2014-07-23 15:29:00,86.5,71.0,29.68,ENE,75,1.0,9.0,60,0.00,,---,0.00,VWS V14.01,2014-07-23 19:29:00,
2014-07-23 15:31:00,86.4,70.9,29.68,East,98,7.0,14.0,60,0.00,,---,0.00,VWS V14.01,2014-07-23 19:31:00,
2014-07-23 15:33:00,86.3,69.8,29.68,East,96,3.0,14.0,58,0.00,,---,0.00,VWS V14.01,2014-07-23 19:33:00,
2014-07-23 15:34:00,86.3,71.3,29.68,East,84,2.0,4.0,61,0.00,,---,0.00,VWS V14.01,2014-07-23 19:34:00,
2014-07-23 15:36:00,86.3,71.3,29.68,East,96,4.0,7.0,61,0.00,,---,0.00,VWS V14.01,2014-07-23 19:36:00,
2014-07-23 15:38:00,86.3,70.8,29.68,East,88,1.0,7.0,60,0.00,,---,0.00,VWS V14.01,2014-07-23 19:38:00,
2014-07-23 15:39:00,86.3,71.8,29.67,ESE,104,4.0,7.0,62,0.00,,---,0.00,VWS V14.01,2014-07-23 19:39:00,
2014-07-23 15:40:00,86.3,71.3,29.67,East,100,5.0,7.0,61,0.00,,---,0.00,VWS V14.01,2014-07-23 19:40:00,
2014-07-23 15:41:00,86.3,69.8,29.67,ENE,60,8.0,8.0,58,0.00,,---,0.00,VWS V14.01,2014-07-23 19:41:00,
2014-07-23 15:43:00,86.2,70.2,29.67,SE,131,3.0,10.0,59,0.00,,---,0.00,VWS V14.01,2014-07-23 19:43:00,
2014-07-23 15:44:00,86.2,70.7,29.67,East,86,2.0,10.0,60,0.00,,---,0.00,VWS V14.01,2014-07-23 19:44:00,
2014-07-23 15:45:00,86.2,70.7,29.67,ENE,78,3.0,10.0,60,0.00,,---,0.00,VWS V14.01,2014-07-23 19:45:00,
2014-07-23 15:46:00,86.3,70.8,29.67,ESE,107,5.0,10.0,60,0.00,,---,0.00,VWS V14.01,2014-07-23 19:46:00,
2014-07-23 15:48:00,86.3,70.8,29.67,ESE,113,5.0,10.0,60,0.00,,---,0.00,VWS V14.01,2014-07-23 19:48:00,
2014-07-23 15:50:00,86.3,71.8,29.67,East,91,3.0,10.0,62,0.00,,---,0.00,VWS V14.01,2014-07-23 19:50:00,
2014-07-23 15:51:00,86.4,71.4,29.67,East,88,0.0,10.0,61,0.00,,---,0.00,VWS V14.01,2014-07-23 19:51:00,
2014-07-23 15:52:00,86.4,71.4,29.67,ESE,117,3.0,10.0,61,0.00,,---,0.00,VWS V14.01,2014-07-23 19:52:00,
2014-07-23 15:53:00,86.4,71.4,29.67,ESE,103,5.0,10.0,61,0.00,,---,0.00,VWS V14.01,2014-07-23 19:53:00,
2014-07-23 15:55:00,86.3,70.8,29.67,ESE,105,3.0,10.0,60,0.00,,---,0.00,VWS V14.01,2014-07-23 19:55:00,
2014-07-23 15:56:00,86.3,71.3,29.67,ENE,58,2.0,10.0,61,0.00,,---,0.00,VWS V14.01,2014-07-23 19:56:00,
2014-07-23 15:57:00,86.3,71.3,29.67,ESE,113,2.0,10.0,61,0.00,,---,0.00,VWS V14.01,2014-07-23 19:57:00,
2014-07-23 15:58:00,86.3,71.3,29.67,East,82,3.0,10.0,61,0.00,,---,0.00,VWS V14.01,2014-07-23 19:58:00,
2014-07-23 16:00:00,86.3,69.8,29.67,ENE,71,2.0,10.0,58,0.00,,---,0.00,VWS V14.01,2014-07-23 20:00:00,
2014-07-23 16:01:00,86.3,70.8,29.67,East,82,1.0,10.0,60,0.00,,---,0.00,VWS V14.01,2014-07-23 20:01:00,
2014-07-23 16:02:00,86.4,70.9,29.67,East,82,0.0,10.0,60,0.00,,---,0.00,VWS V14.01,2014-07-23 20:02:00,
2014-07-23 16:03:00,86.5,71.5,29.67,East,82,0.0,10.0,61,0.00,,---,0.00,VWS V14.01,2014-07-23 20:03:00,
2014-07-23 16:05:00,86.7,72.1,29.67,ESE,107,2.0,2.0,62,0.00,,---,0.00,VWS V14.01,2014-07-23 20:05:00,
2014-07-23 16:06:00,86.8,70.8,29.67,NNE,21,2.0,5.0,59,0.00,,---,0.00,VWS V14.01,2014-07-23 20:06:00,
2014-07-23 16:07:00,86.8,71.3,29.67,NNE,22,1.0,5.0,60,0.00,,---,0.00,VWS V14.01,2014-07-23 20:07:00,
2014-07-23 16:08:00,86.9,70.9,29.67,NNE,27,0.0,5.0,59,0.00,,---,0.00,VWS V14.01,2014-07-23 20:08:00,
2014-07-23 16:10:00,87.0,70.9,29.66,East,86,2.0,5.0,59,0.00,,---,0.00,VWS V14.01,2014-07-23 20:10:00,
2014-07-23 16:11:00,87.0,71.4,29.67,East,94,2.0,7.0,60,0.00,,---,0.00,VWS V14.01,2014-07-23 20:11:00,
2014-07-23 16:12:00,87.0,71.4,29.67,East,84,2.0,7.0,60,0.00,,---,0.00,VWS V14.01,2014-07-23 20:12:00,
2014-07-23 16:13:00,86.9,70.9,29.67,East,101,3.0,7.0,59,0.00,,---,0.00,VWS V14.01,2014-07-23 20:13:00,
2014-07-23 16:15:00,86.9,70.9,29.66,ENE,70,7.0,7.0,59,0.00,,---,0.00,VWS V14.01,2014-07-23 20:15:00,
2014-07-23 16:17:00,86.8,70.8,29.66,ESE,115,7.0,7.0,59,0.00,,---,0.00,VWS V14.01,2014-07-23 20:17:00,
2014-07-23 16:18:00,86.7,70.7,29.66,ESE,108,6.0,9.0,59,0.00,,---,0.00,VWS V14.01,2014-07-23 20:18:00,
2014-07-23 16:20:00,86.4,70.4,29.66,ESE,123,2.0,11.0,59,0.00,,---,0.00,VWS V14.01,2014-07-23 20:20:00,
2014-07-23 16:22:00,86.3,69.8,29.66,East,101,1.0,11.0,58,0.00,,---,0.00,VWS V14.01,2014-07-23 20:22:00,
2014-07-23 16:23:00,86.3,70.3,29.66,ENE,65,2.0,11.0,59,0.00,,---,0.00,VWS V14.01,2014-07-23 20:23:00,
2014-07-23 16:24:00,86.2,70.2,29.66,ENE,74,2.0,11.0,59,0.00,,---,0.00,VWS V14.01,2014-07-23 20:24:00,
2014-07-23 16:26:00,86.0,70.5,29.65,ENE,77,3.0,11.0,60,0.00,,---,0.00,VWS V14.01,2014-07-23 20:26:00,
2014-07-23 16:27:00,86.0,70.0,29.65,ESE,102,3.0,11.0,59,0.00,,---,0.00,VWS V14.01,2014-07-23 20:27:00,
2014-07-23 16:28:00,85.9,69.9,29.65,ENE,76,3.0,11.0,59,0.00,,---,0.00,VWS V14.01,2014-07-23 20:28:00,
2014-07-23 16:29:00,85.9,70.4,29.65,ESE,103,4.0,11.0,60,0.00,,---,0.00,VWS V14.01,2014-07-23 20:29:00,
2014-07-23 16:31:00,85.8,69.8,29.65,ESE,108,2.0,11.0,59,0.00,,---,0.00,VWS V14.01,2014-07-23 20:31:00,
2014-07-23 16:33:00,85.8,70.3,29.66,ESE,110,4.0,11.0,60,0.00,,---,0.00,VWS V14.01,2014-07-23 20:33:00,
2014-07-23 16:34:00,85.8,70.8,29.66,ENE,75,4.0,6.0,61,0.00,,---,0.00,VWS V14.01,2014-07-23 20:34:00,
2014-07-23 16:36:00,85.6,70.1,29.66,ENE,71,4.0,6.0,60,0.00,,---,0.00,VWS V14.01,2014-07-23 20:36:00,
2014-07-23 16:38:00,85.5,70.5,29.66,ESE,104,1.0,6.0,61,0.00,,---,0.00,VWS V14.01,2014-07-23 20:38:00,
2014-07-23 16:39:00,85.5,70.5,29.66,East,97,1.0,6.0,61,0.00,,---,0.00,VWS V14.01,2014-07-23 20:39:00,
2014-07-23 16:41:00,85.4,70.4,29.66,East,82,2.0,6.0,61,0.00,,---,0.00,VWS V14.01,2014-07-23 20:41:00,
2014-07-23 16:43:00,85.3,70.3,29.66,East,82,2.0,6.0,61,0.00,,---,0.00,VWS V14.01,2014-07-23 20:43:00,
2014-07-23 16:44:00,85.3,70.8,29.66,East,87,1.0,6.0,62,0.00,,---,0.00,VWS V14.01,2014-07-23 20:44:00,
2014-07-23 16:46:00,85.2,70.7,29.66,ESE,115,2.0,6.0,62,0.00,,---,0.00,VWS V14.01,2014-07-23 20:46:00,
2014-07-23 16:48:00,85.1,70.2,29.66,ESE,103,4.0,6.0,61,0.00,,---,0.00,VWS V14.01,2014-07-23 20:48:00,
2014-07-23 16:49:00,85.0,70.1,29.66,ESE,108,2.0,6.0,61,0.00,,---,0.00,VWS V14.01,2014-07-23 20:49:00,
2014-07-23 16:50:00,85.0,70.1,29.66,East,79,2.0,6.0,61,0.00,,---,0.00,VWS V14.01,2014-07-23 20:50:00,
2014-07-23 16:51:00,85.0,70.5,29.66,East,96,2.0,6.0,62,0.00,,---,0.00,VWS V14.01,2014-07-23 20:51:00,
2014-07-23 16:53:00,84.8,70.3,29.66,ESE,103,0.0,6.0,62,0.00,,---,0.00,VWS V14.01,2014-07-23 20:53:00,
2014-07-23 16:54:00,84.7,71.6,29.66,ESE,117,2.0,6.0,65,0.00,,---,0.00,VWS V14.01,2014-07-23 20:54:00,
2014-07-23 16:55:00,84.6,72.4,29.68,ESE,116,4.0,7.0,67,0.00,,---,0.00,VWS V14.01,2014-07-23 20:55:00,
2014-07-23 16:56:00,84.3,70.8,29.69,SE,134,4.0,7.0,64,0.00,,---,0.00,VWS V14.01,2014-07-23 20:56:00,
2014-07-23 16:58:00,83.6,68.7,29.69,East,92,1.0,10.0,61,0.00,,---,0.00,VWS V14.01,2014-07-23 20:58:00,
2014-07-23 16:59:00,83.0,68.2,29.69,SSE,149,2.0,10.0,61,0.00,,---,0.00,VWS V14.01,2014-07-23 20:59:00,
2014-07-23 17:00:00,82.7,67.9,29.69,NE,50,5.0,10.0,61,0.00,,---,0.00,VWS V14.01,2014-07-23 21:00:00,
2014-07-23 17:01:00,82.2,66.9,29.69,ESE,104,2.0,10.0,60,0.00,,---,0.00,VWS V14.01,2014-07-23 21:01:00,
2014-07-23 17:03:00,81.0,66.3,29.69,SSW,203,1.0,6.0,61,0.00,,---,0.00,VWS V14.01,2014-07-23 21:03:00,
2014-07-23 17:04:00,80.7,66.0,29.69,ENE,75,1.0,6.0,61,0.00,,---,0.00,VWS V14.01,2014-07-23 21:04:00,
2014-07-23 17:06:00,80.1,65.9,29.68,ESE,107,1.0,6.0,62,0.00,,---,0.00,VWS V14.01,2014-07-23 21:06:00,
2014-07-23 17:08:00,79.3,65.2,29.69,SE,141,1.0,6.0,62,0.00,,---,0.00,VWS V14.01,2014-07-23 21:08:00,
2014-07-23 17:09:00,79.2,65.1,29.69,ENE,58,3.0,6.0,62,0.00,,---,0.00,VWS V14.01,2014-07-23 21:09:00,
2014-07-23 17:11:00,78.9,65.2,29.69,ENE,74,1.0,6.0,63,0.00,,---,0.00,VWS V14.01,2014-07-23 21:11:00,
2014-07-23 17:14:00,78.4,65.2,29.69,WSW,238,2.0,6.0,64,0.00,,---,0.00,VWS V14.01,2014-07-23 21:14:00,
2014-07-23 17:16:00,77.9,65.2,29.70,ESE,108,2.0,6.0,65,0.00,,---,0.00,VWS V14.01,2014-07-23 21:16:00,
2014-07-23 17:19:00,77.2,66.7,29.70,West,263,2.0,6.0,70,0.00,,---,0.00,VWS V14.01,2014-07-23 21:19:00,
2014-07-23 17:21:00,76.1,66.4,29.70,SW,217,0.0,6.0,72,0.01,,---,0.01,VWS V14.01,2014-07-23 21:21:00,
2014-07-23 17:22:00,76.0,66.3,29.70,NE,56,1.0,6.0,72,0.01,,---,0.01,VWS V14.01,2014-07-23 21:22:00,
2014-07-23 17:24:00,75.3,66.8,29.70,ENE,58,0.0,6.0,75,0.01,,---,0.01,VWS V14.01,2014-07-23 21:24:00,
2014-07-23 17:25:00,75.1,66.6,29.70,ENE,58,0.0,6.0,75,0.01,,---,0.01,VWS V14.01,2014-07-23 21:25:00,
2014-07-23 17:26:00,74.6,66.2,29.70,West,274,0.0,6.0,75,0.01,,---,0.01,VWS V14.01,2014-07-23 21:26:00,
2014-07-23 17:27:00,74.4,66.0,29.70,West,265,1.0,6.0,75,0.01,,---,0.01,VWS V14.01,2014-07-23 21:27:00,
2014-07-23 17:29:00,73.6,65.9,29.70,West,262,1.0,6.0,77,0.01,,---,0.01,VWS V14.01,2014-07-23 21:29:00,
2014-07-23 17:30:00,73.4,66.1,29.70,SSE,162,0.0,6.0,78,0.02,,---,0.02,VWS V14.01,2014-07-23 21:30:00,
2014-07-23 17:31:00,73.1,66.2,29.70,SSE,162,0.0,6.0,79,0.04,,---,0.04,VWS V14.01,2014-07-23 21:31:00,
2014-07-23 17:32:00,73.0,66.5,29.70,SSE,162,0.0,6.0,80,0.05,,---,0.05,VWS V14.01,2014-07-23 21:32:00,